| time (UTC) | temp F | wind direction | speed MPH | gust MPH | rain 1hr in | rain 24hr in | rain mn in | humidity % | barometer mb |
| 20260505032224 | 58 | 137 | 1.0 | 2.0 | 0.00 | 0.00 | 0.00 | 64 | 1011.4 |
| 20260505032120 | 59 | 130 | 0.0 | 1.0 | 0.00 | 0.00 | 0.00 | 64 | 1011.2 |
| 20260505032015 | 59 | 0.0 | 2.0 | 0.00 | 0.00 | 0.00 | 64 | 1011.3 | |
| 20260505031927 | 59 | 146 | 1.0 | 2.0 | 0.00 | 0.00 | 0.00 | 64 | 1011.6 |
| 20260505031822 | 59 | 106 | 1.0 | 2.0 | 0.00 | 0.00 | 0.00 | 63 | 1011.3 |
| 20260505031738 | 59 | 145 | 1.0 | 2.0 | 0.00 | 0.00 | 0.00 | 63 | 1011.4 |
| 20260505031630 | 59 | 143 | 1.0 | 2.0 | 0.00 | 0.00 | 0.00 | 63 | 1011.3 |
| 20260505031525 | 59 | 147 | 0.0 | 2.0 | 0.00 | 0.00 | 0.00 | 63 | 1011.5 |
| 20260505031441 | 59 | 127 | 1.0 | 2.0 | 0.00 | 0.00 | 0.00 | 63 | 1011.4 |
| 20260505031316 | 59 | 131 | 1.0 | 2.0 | 0.00 | 0.00 | 0.00 | 62 | 1011.6 |
| 20260505031248 | 59 | 161 | 1.0 | 2.0 | 0.00 | 0.00 | 0.00 | 62 | 1011.4 |
| 20260505031124 | 60 | 208 | 1.0 | 2.0 | 0.00 | 0.00 | 0.00 | 62 | 1011.5 |
| 20260505031039 | 60 | 134 | 1.0 | 2.0 | 0.00 | 0.00 | 0.00 | 62 | 1011.6 |
| 20260505030931 | 60 | 134 | 1.0 | 2.0 | 0.00 | 0.00 | 0.00 | 62 | 1011.5 |
| 20260505030826 | 60 | 197 | 1.0 | 2.0 | 0.00 | 0.00 | 0.00 | 61 | 1011.4 |
| 20260505030722 | 60 | 0.0 | 2.0 | 0.00 | 0.00 | 0.00 | 61 | 1011.5 | |
| 20260505030638 | 60 | 130 | 1.0 | 2.0 | 0.00 | 0.00 | 0.00 | 61 | 1011.4 |
| 20260505030529 | 60 | 106 | 1.0 | 3.0 | 0.00 | 0.00 | 0.00 | 61 | 1011.6 |
| 20260505030425 | 60 | 191 | 1.0 | 2.0 | 0.00 | 0.00 | 0.00 | 60 | 1011.6 |
| 20260505030320 | 60 | 180 | 1.0 | 2.0 | 0.00 | 0.00 | 0.00 | 61 | 1011.5 |
| 20260505030216 | 60 | 183 | 1.0 | 2.0 | 0.00 | 0.00 | 0.00 | 61 | 1011.6 |
| 20260505030128 | 60 | 155 | 2.0 | 3.0 | 0.00 | 0.00 | 0.00 | 61 | 1011.5 |
| 20260505030023 | 60 | 183 | 3.0 | 6.0 | 0.00 | 0.00 | 0.00 | 60 | 1011.7 |
| 20260505025919 | 60 | 195 | 3.0 | 5.0 | 0.00 | 0.00 | 0.00 | 61 | 1011.5 |
| 20260505025831 | 60 | 183 | 2.0 | 2.0 | 0.00 | 0.00 | 0.00 | 61 | 1011.4 |
| 20260505025726 | 60 | 186 | 1.0 | 2.0 | 0.00 | 0.00 | 0.00 | 61 | 1011.5 |
| 20260505025702 | 60 | 188 | 1.0 | 3.0 | 0.00 | 0.00 | 0.00 | 61 | 1011.7 |
| 20260505025517 | 60 | 151 | 1.0 | 2.0 | 0.00 | 0.00 | 0.00 | 61 | 1011.5 |
| 20260505025429 | 60 | 167 | 2.0 | 4.0 | 0.00 | 0.00 | 0.00 | 61 | 1011.5 |
| 20260505025324 | 60 | 180 | 2.0 | 3.0 | 0.00 | 0.00 | 0.00 | 61 | 1011.4 |
| 20260505025220 | 60 | 144 | 2.0 | 2.0 | 0.00 | 0.00 | 0.00 | 61 | 1011.4 |
| 20260505025116 | 60 | 229 | 1.0 | 3.0 | 0.00 | 0.00 | 0.00 | 61 | 1011.6 |
| 20260505025028 | 60 | 127 | 1.0 | 2.0 | 0.00 | 0.00 | 0.00 | 61 | 1011.4 |
| 20260505024923 | 60 | 0.0 | 2.0 | 0.00 | 0.00 | 0.00 | 61 | 1011.4 | |
| 20260505024818 | 60 | 119 | 1.0 | 2.0 | 0.00 | 0.00 | 0.00 | 61 | 1011.6 |
| 20260505024730 | 60 | 169 | 1.0 | 3.0 | 0.00 | 0.00 | 0.00 | 61 | 1011.5 |
| 20260505024646 | 60 | 201 | 2.0 | 3.0 | 0.00 | 0.00 | 0.00 | 60 | 1011.3 |
| 20260505024521 | 60 | 99 | 0.0 | 2.0 | 0.00 | 0.00 | 0.00 | 60 | 1011.6 |
| 20260505024417 | 60 | 67 | 1.0 | 2.0 | 0.00 | 0.00 | 0.00 | 61 | 1011.5 |
| 20260505024348 | 60 | 127 | 1.0 | 2.0 | 0.00 | 0.00 | 0.00 | 60 | 1011.3 |
| 20260505024224 | 60 | 120 | 1.0 | 1.0 | 0.00 | 0.00 | 0.00 | 60 | 1011.2 |
| 20260505024120 | 60 | 127 | 1.0 | 2.0 | 0.00 | 0.00 | 0.00 | 60 | 1011.4 |
| 20260505024015 | 60 | 126 | 1.0 | 2.0 | 0.00 | 0.00 | 0.00 | 60 | 1011.4 |
| 20260505023927 | 60 | 137 | 2.0 | 3.0 | 0.00 | 0.00 | 0.00 | 60 | 1011.4 |
| 20260505023822 | 60 | 129 | 0.0 | 2.0 | 0.00 | 0.00 | 0.00 | 60 | 1011.4 |
| 20260505023718 | 60 | 143 | 1.0 | 2.0 | 0.00 | 0.00 | 0.00 | 59 | 1011.6 |
| 20260505023630 | 60 | 136 | 1.0 | 2.0 | 0.00 | 0.00 | 0.00 | 59 | 1011.3 |
| 20260505023545 | 61 | 168 | 1.0 | 2.0 | 0.00 | 0.00 | 0.00 | 59 | 1011.5 |
| 20260505023421 | 61 | 125 | 2.0 | 3.0 | 0.00 | 0.00 | 0.00 | 59 | 1011.4 |
| 20260505023316 | 61 | 137 | 1.0 | 2.0 | 0.00 | 0.00 | 0.00 | 58 | 1011.6 |
| 20260505023228 | 61 | 145 | 1.0 | 2.0 | 0.00 | 0.00 | 0.00 | 58 | 1011.6 |
| 20260505023144 | 61 | 99 | 1.0 | 2.0 | 0.00 | 0.00 | 0.00 | 58 | 1011.4 |
| 20260505023019 | 61 | 110 | 2.0 | 3.0 | 0.00 | 0.00 | 0.00 | 57 | 1011.6 |
| 20260505022951 | 62 | 123 | 2.0 | 2.0 | 0.00 | 0.00 | 0.00 | 57 | 1011.5 |
| 20260505022827 | 62 | 185 | 2.0 | 4.0 | 0.00 | 0.00 | 0.00 | 56 | 1011.6 |
| 20260505022722 | 62 | 196 | 1.0 | 3.0 | 0.00 | 0.00 | 0.00 | 56 | 1011.7 |
| 20260505022618 | 62 | 172 | 1.0 | 3.0 | 0.00 | 0.00 | 0.00 | 56 | 1011.5 |
| 20260505022549 | 62 | 176 | 2.0 | 3.0 | 0.00 | 0.00 | 0.00 | 56 | 1011.5 |
| 20260505022425 | 62 | 179 | 1.0 | 3.0 | 0.00 | 0.00 | 0.00 | 56 | 1011.6 |
| 20260505022320 | 62 | 221 | 2.0 | 3.0 | 0.00 | 0.00 | 0.00 | 55 | 1011.4 |
| 20260505022216 | 62 | 188 | 1.0 | 2.0 | 0.00 | 0.00 | 0.00 | 55 | 1011.5 |
| 20260505022127 | 62 | 187 | 2.0 | 2.0 | 0.00 | 0.00 | 0.00 | 55 | 1011.4 |
| 20260505022023 | 62 | 209 | 2.0 | 3.0 | 0.00 | 0.00 | 0.00 | 56 | 1011.6 |
| 20260505021919 | 62 | 172 | 2.0 | 3.0 | 0.00 | 0.00 | 0.00 | 55 | 1011.6 |
| 20260505021830 | 62 | 206 | 2.0 | 3.0 | 0.00 | 0.00 | 0.00 | 55 | 1011.5 |
| 20260505021726 | 62 | 198 | 2.0 | 3.0 | 0.00 | 0.00 | 0.00 | 55 | 1011.6 |
| 20260505021642 | 62 | 0.0 | 2.0 | 0.00 | 0.00 | 0.00 | 55 | 1011.4 | |
| 20260505021517 | 62 | 115 | 1.0 | 3.0 | 0.00 | 0.00 | 0.00 | 55 | 1011.6 |
| 20260505021429 | 62 | 208 | 1.0 | 2.0 | 0.00 | 0.00 | 0.00 | 54 | 1011.7 |
| 20260505021324 | 62 | 196 | 1.0 | 3.0 | 0.00 | 0.00 | 0.00 | 54 | 1011.4 |
| 20260505021220 | 62 | 204 | 2.0 | 3.0 | 0.00 | 0.00 | 0.00 | 54 | 1011.5 |
| 20260505021135 | 62 | 184 | 2.0 | 3.0 | 0.00 | 0.00 | 0.00 | 54 | 1011.7 |
| 20260505021027 | 62 | 199 | 4.0 | 7.0 | 0.00 | 0.00 | 0.00 | 54 | 1011.5 |
| 20260505020923 | 62 | 209 | 5.0 | 6.0 | 0.00 | 0.00 | 0.00 | 54 | 1011.7 |
| 20260505020818 | 62 | 207 | 1.0 | 2.0 | 0.00 | 0.00 | 0.00 | 55 | 1011.6 |
| 20260505020730 | 62 | 148 | 2.0 | 5.0 | 0.00 | 0.00 | 0.00 | 54 | 1011.7 |
| 20260505020646 | 62 | 211 | 1.0 | 3.0 | 0.00 | 0.00 | 0.00 | 54 | 1011.6 |
| 20260505020522 | 62 | 57 | 2.0 | 4.0 | 0.00 | 0.00 | 0.00 | 54 | 1011.7 |
| 20260505020417 | 62 | 156 | 0.0 | 2.0 | 0.00 | 0.00 | 0.00 | 54 | 1011.7 |
| 20260505020329 | 62 | 128 | 1.0 | 2.0 | 0.00 | 0.00 | 0.00 | 54 | 1011.7 |
| 20260505020244 | 62 | 198 | 2.0 | 3.0 | 0.00 | 0.00 | 0.00 | 54 | 1011.6 |
| 20260505020120 | 62 | 182 | 2.0 | 2.0 | 0.00 | 0.00 | 0.00 | 54 | 1011.7 |
| 20260505020015 | 62 | 208 | 2.0 | 4.0 | 0.00 | 0.00 | 0.00 | 53 | 1011.7 |
| 20260505015927 | 62 | 197 | 2.0 | 5.0 | 0.00 | 0.00 | 0.00 | 53 | 1011.6 |
| 20260505015823 | 62 | 142 | 1.0 | 2.0 | 0.00 | 0.00 | 0.00 | 53 | 1011.5 |
| 20260505015718 | 62 | 163 | 1.0 | 2.0 | 0.00 | 0.00 | 0.00 | 53 | 1011.6 |
| 20260505015630 | 61 | 169 | 2.0 | 4.0 | 0.00 | 0.00 | 0.00 | 53 | 1011.5 |
| 20260505015526 | 61 | 208 | 2.0 | 4.0 | 0.00 | 0.00 | 0.00 | 53 | 1011.4 |
| 20260505015421 | 61 | 195 | 2.0 | 3.0 | 0.00 | 0.00 | 0.00 | 54 | 1011.4 |
| 20260505015317 | 61 | 124 | 1.0 | 2.0 | 0.00 | 0.00 | 0.00 | 53 | 1011.4 |
| 20260505015229 | 61 | 155 | 0.0 | 2.0 | 0.00 | 0.00 | 0.00 | 53 | 1011.5 |
| 20260505015124 | 62 | 150 | 1.0 | 2.0 | 0.00 | 0.00 | 0.00 | 53 | 1011.4 |
| 20260505015020 | 61 | 143 | 2.0 | 4.0 | 0.00 | 0.00 | 0.00 | 52 | 1011.5 |
| 20260505014915 | 61 | 190 | 2.0 | 4.0 | 0.00 | 0.00 | 0.00 | 53 | 1011.5 |
| 20260505014827 | 61 | 161 | 1.0 | 3.0 | 0.00 | 0.00 | 0.00 | 53 | 1011.5 |
| 20260505014723 | 61 | 83 | 2.0 | 3.0 | 0.00 | 0.00 | 0.00 | 53 | 1011.5 |
| 20260505014618 | 61 | 166 | 1.0 | 2.0 | 0.00 | 0.00 | 0.00 | 54 | 1011.4 |
| 20260505014530 | 61 | 149 | 1.0 | 2.0 | 0.00 | 0.00 | 0.00 | 53 | 1011.3 |
| 20260505014425 | 61 | 119 | 0.0 | 2.0 | 0.00 | 0.00 | 0.00 | 53 | 1011.5 |
| 20260505014321 | 61 | 56 | 1.0 | 2.0 | 0.00 | 0.00 | 0.00 | 53 | 1011.4 |
| 20260505014237 | 61 | 123 | 2.0 | 3.0 | 0.00 | 0.00 | 0.00 | 54 | 1011.4 |
| 20260505014128 | 60 | 183 | 3.0 | 5.0 | 0.00 | 0.00 | 0.00 | 52 | 1011.4 |
| 20260505014024 | 60 | 184 | 1.0 | 3.0 | 0.00 | 0.00 | 0.00 | 56 | 1011.5 |
| 20260505013919 | 60 | 181 | 1.0 | 2.0 | 0.00 | 0.00 | 0.00 | 57 | 1011.3 |
| 20260505013815 | 60 | 186 | 1.0 | 2.0 | 0.00 | 0.00 | 0.00 | 55 | 1011.3 |
| 20260505013727 | 60 | 156 | 2.0 | 2.0 | 0.00 | 0.00 | 0.00 | 55 | 1011.5 |
| 20260505013622 | 60 | 124 | 1.0 | 4.0 | 0.00 | 0.00 | 0.00 | 55 | 1011.3 |
| 20260505013518 | 60 | 208 | 1.0 | 2.0 | 0.00 | 0.00 | 0.00 | 54 | 1011.4 |
| 20260505013430 | 60 | 0.0 | 2.0 | 0.00 | 0.00 | 0.00 | 54 | 1011.3 | |
| 20260505013325 | 60 | 80 | 1.0 | 2.0 | 0.00 | 0.00 | 0.00 | 55 | 1011.2 |
| 20260505013221 | 60 | 0.0 | 1.0 | 0.00 | 0.00 | 0.00 | 55 | 1011.5 | |
| 20260505013116 | 60 | 0.0 | 2.0 | 0.00 | 0.00 | 0.00 | 55 | 1011.4 | |
| 20260505013028 | 60 | 128 | 1.0 | 2.0 | 0.00 | 0.00 | 0.00 | 54 | 1011.5 |
| 20260505013004 | 60 | 132 | 1.0 | 3.0 | 0.00 | 0.00 | 0.00 | 55 | 1011.3 |
| 20260505012819 | 60 | 143 | 2.0 | 3.0 | 0.00 | 0.00 | 0.00 | 54 | 1011.3 |
| 20260505012715 | 60 | 121 | 2.0 | 2.0 | 0.00 | 0.00 | 0.00 | 55 | 1011.2 |
| 20260505012627 | 60 | 144 | 1.0 | 2.0 | 0.00 | 0.00 | 0.00 | 55 | 1011.2 |
| 20260505012522 | 60 | 118 | 1.0 | 2.0 | 0.00 | 0.00 | 0.00 | 55 | 1011.2 |
| 20260505012418 | 60 | 0.0 | 1.0 | 0.00 | 0.00 | 0.00 | 54 | 1011.2 | |
| 20260505012330 | 60 | 111 | 1.0 | 2.0 | 0.00 | 0.00 | 0.00 | 55 | 1011.2 |
| 20260505012225 | 60 | 126 | 1.0 | 2.0 | 0.00 | 0.00 | 0.00 | 55 | 1011.1 |
| 20260505012141 | 60 | 149 | 1.0 | 2.0 | 0.00 | 0.00 | 0.00 | 54 | 1011.2 |
| 20260505012017 | 60 | 135 | 1.0 | 2.0 | 0.00 | 0.00 | 0.00 | 54 | 1011.2 |
| 20260505011928 | 60 | 137 | 1.0 | 2.0 | 0.00 | 0.00 | 0.00 | 54 | 1011.1 |
| 20260505011824 | 60 | 144 | 1.0 | 2.0 | 0.00 | 0.00 | 0.00 | 54 | 1011.0 |
| 20260505011719 | 60 | 116 | 0.0 | 2.0 | 0.00 | 0.00 | 0.00 | 54 | 1011.0 |
| 20260505011631 | 60 | 92 | 1.0 | 2.0 | 0.00 | 0.00 | 0.00 | 54 | 1011.0 |
| 20260505011546 | 61 | 170 | 0.0 | 2.0 | 0.00 | 0.00 | 0.00 | 54 | 1011.0 |
| 20260505011442 | 61 | 122 | 1.0 | 2.0 | 0.00 | 0.00 | 0.00 | 54 | 1011.0 |
| 20260505011318 | 61 | 0.0 | 1.0 | 0.00 | 0.00 | 0.00 | 54 | 1011.0 | |
| 20260505011229 | 61 | 122 | 0.0 | 2.0 | 0.00 | 0.00 | 0.00 | 54 | 1011.0 |
| 20260505011125 | 61 | 142 | 1.0 | 2.0 | 0.00 | 0.00 | 0.00 | 54 | 1010.8 |
| 20260505011021 | 61 | 108 | 0.0 | 2.0 | 0.00 | 0.00 | 0.00 | 54 | 1010.7 |
| 20260505010916 | 61 | 139 | 1.0 | 2.0 | 0.00 | 0.00 | 0.00 | 53 | 1010.9 |
| 20260505010828 | 61 | 117 | 0.0 | 1.0 | 0.00 | 0.00 | 0.00 | 53 | 1011.0 |
| 20260505010723 | 61 | 148 | 1.0 | 2.0 | 0.00 | 0.00 | 0.00 | 52 | 1010.8 |
| 20260505010619 | 61 | 196 | 0.0 | 1.0 | 0.00 | 0.00 | 0.00 | 52 | 1010.8 |
| 20260505010531 | 62 | 0.0 | 2.0 | 0.00 | 0.00 | 0.00 | 52 | 1010.9 | |
| 20260505010427 | 62 | 147 | 0.0 | 2.0 | 0.00 | 0.00 | 0.00 | 52 | 1010.9 |
| 20260505010322 | 62 | 120 | 0.0 | 2.0 | 0.00 | 0.00 | 0.00 | 51 | 1010.8 |
| 20260505010218 | 62 | 157 | 0.0 | 1.0 | 0.00 | 0.00 | 0.00 | 51 | 1010.9 |
| 20260505010129 | 62 | 150 | 1.0 | 2.0 | 0.00 | 0.00 | 0.00 | 51 | 1010.8 |
| 20260505010025 | 62 | 0.0 | 2.0 | 0.00 | 0.00 | 0.00 | 52 | 1010.9 | |
| 20260505005920 | 62 | 0.0 | 2.0 | 0.00 | 0.00 | 0.00 | 52 | 1011.0 | |
| 20260505005816 | 62 | 139 | 1.0 | 2.0 | 0.00 | 0.00 | 0.00 | 52 | 1010.9 |
| 20260505005728 | 62 | 149 | 1.0 | 2.0 | 0.00 | 0.00 | 0.00 | 51 | 1010.8 |
| 20260505005624 | 62 | 114 | 1.0 | 2.0 | 0.00 | 0.00 | 0.00 | 50 | 1011.0 |
| 20260505005519 | 62 | 123 | 1.0 | 2.0 | 0.00 | 0.00 | 0.00 | 50 | 1010.8 |
| 20260505005451 | 62 | 152 | 0.0 | 2.0 | 0.00 | 0.00 | 0.00 | 50 | 1010.9 |
| 20260505005326 | 62 | 126 | 1.0 | 2.0 | 0.00 | 0.00 | 0.00 | 50 | 1010.8 |
| 20260505005222 | 63 | 98 | 1.0 | 2.0 | 0.00 | 0.00 | 0.00 | 50 | 1010.7 |
| 20260505005138 | 63 | 99 | 1.0 | 2.0 | 0.00 | 0.00 | 0.00 | 50 | 1010.7 |
| 20260505005029 | 63 | 142 | 1.0 | 2.0 | 0.00 | 0.00 | 0.00 | 49 | 1010.7 |
| 20260505004925 | 63 | 0.0 | 1.0 | 0.00 | 0.00 | 0.00 | 49 | 1010.7 | |
| 20260505004840 | 63 | 199 | 0.0 | 2.0 | 0.00 | 0.00 | 0.00 | 49 | 1010.6 |
| 20260505004716 | 63 | 142 | 1.0 | 2.0 | 0.00 | 0.00 | 0.00 | 49 | 1010.8 |
| 20260505004627 | 63 | 124 | 1.0 | 2.0 | 0.00 | 0.00 | 0.00 | 49 | 1010.6 |
| 20260505004543 | 63 | 0.0 | 1.0 | 0.00 | 0.00 | 0.00 | 49 | 1010.6 | |
| 20260505004439 | 63 | 0.0 | 2.0 | 0.00 | 0.00 | 0.00 | 49 | 1010.7 | |
| 20260505004331 | 63 | 144 | 1.0 | 2.0 | 0.00 | 0.00 | 0.00 | 48 | 1010.6 |
| 20260505004226 | 64 | 0.0 | 2.0 | 0.00 | 0.00 | 0.00 | 48 | 1010.6 | |
| 20260505004122 | 64 | 142 | 1.0 | 2.0 | 0.00 | 0.00 | 0.00 | 48 | 1010.5 |
| 20260505004017 | 64 | 84 | 0.0 | 1.0 | 0.00 | 0.00 | 0.00 | 48 | 1010.7 |
| 20260505003929 | 64 | 157 | 0.0 | 2.0 | 0.00 | 0.00 | 0.00 | 48 | 1010.4 |
| 20260505003825 | 64 | 137 | 0.0 | 1.0 | 0.00 | 0.00 | 0.00 | 47 | 1010.6 |
| 20260505003720 | 64 | 0.0 | 0.0 | 0.00 | 0.00 | 0.00 | 47 | 1010.6 | |
| 20260505003616 | 64 | 0.0 | 2.0 | 0.00 | 0.00 | 0.00 | 47 | 1010.5 | |
| 20260505003528 | 64 | 131 | 1.0 | 2.0 | 0.00 | 0.00 | 0.00 | 47 | 1010.5 |
| 20260505003423 | 64 | 176 | 0.0 | 1.0 | 0.00 | 0.00 | 0.00 | 47 | 1010.6 |
| 20260505003359 | 65 | 124 | 0.0 | 2.0 | 0.00 | 0.00 | 0.00 | 47 | 1010.5 |
| 20260505003230 | 65 | 153 | 1.0 | 1.0 | 0.00 | 0.00 | 0.00 | 46 | 1010.5 |
| 20260505003126 | 65 | 81 | 1.0 | 1.0 | 0.00 | 0.00 | 0.00 | 46 | 1010.3 |
| 20260505003021 | 65 | 0.0 | 1.0 | 0.00 | 0.00 | 0.00 | 46 | 1010.5 | |
| 20260505002917 | 65 | 102 | 1.0 | 2.0 | 0.00 | 0.00 | 0.00 | 46 | 1010.4 |
| 20260505002849 | 65 | 111 | 1.0 | 2.0 | 0.00 | 0.00 | 0.00 | 46 | 1010.5 |
| 20260505002724 | 65 | 118 | 1.0 | 2.0 | 0.00 | 0.00 | 0.00 | 45 | 1010.6 |
| 20260505002640 | 66 | 134 | 1.0 | 2.0 | 0.00 | 0.00 | 0.00 | 45 | 1010.4 |
| 20260505002516 | 66 | 139 | 1.0 | 2.0 | 0.00 | 0.00 | 0.00 | 44 | 1010.6 |
| 20260505002427 | 66 | 118 | 0.0 | 2.0 | 0.00 | 0.00 | 0.00 | 44 | 1010.4 |
| 20260505002323 | 66 | 0.0 | 0.0 | 0.00 | 0.00 | 0.00 | 43 | 1010.4 | |
| 20260505002238 | 66 | 0.0 | 1.0 | 0.00 | 0.00 | 0.00 | 42 | 1010.3 | |
| 20260505002130 | 66 | 0.0 | 1.0 | 0.00 | 0.00 | 0.00 | 42 | 1010.4 | |
| 20260505002026 | 66 | 193 | 0.0 | 2.0 | 0.00 | 0.00 | 0.00 | 42 | 1010.5 |
| 20260505001921 | 67 | 0.0 | 1.0 | 0.00 | 0.00 | 0.00 | 42 | 1010.4 | |
| 20260505001817 | 67 | 184 | 0.0 | 2.0 | 0.00 | 0.00 | 0.00 | 42 | 1010.3 |
| 20260505001728 | 67 | 0.0 | 1.0 | 0.00 | 0.00 | 0.00 | 41 | 1010.5 | |
| 20260505001624 | 67 | 216 | 1.0 | 3.0 | 0.00 | 0.00 | 0.00 | 41 | 1010.3 |
| 20260505001520 | 67 | 206 | 1.0 | 2.0 | 0.00 | 0.00 | 0.00 | 41 | 1010.2 |
| 20260505001415 | 67 | 191 | 1.0 | 2.0 | 0.00 | 0.00 | 0.00 | 41 | 1010.2 |
| 20260505001327 | 67 | 224 | 1.0 | 2.0 | 0.00 | 0.00 | 0.00 | 41 | 1010.3 |
| 20260505001222 | 67 | 210 | 1.0 | 2.0 | 0.00 | 0.00 | 0.00 | 41 | 1010.3 |
| 20260505001118 | 67 | 219 | 1.0 | 2.0 | 0.00 | 0.00 | 0.00 | 41 | 1010.4 |
| 20260505001030 | 67 | 222 | 0.0 | 2.0 | 0.00 | 0.00 | 0.00 | 40 | 1010.3 |
| 20260505000925 | 67 | 206 | 1.0 | 2.0 | 0.00 | 0.00 | 0.00 | 41 | 1010.3 |
| 20260505000821 | 67 | 235 | 1.0 | 2.0 | 0.00 | 0.00 | 0.00 | 40 | 1010.2 |
| 20260505000716 | 67 | 201 | 1.0 | 2.0 | 0.00 | 0.00 | 0.00 | 40 | 1010.2 |
| 20260505000628 | 67 | 248 | 0.0 | 2.0 | 0.00 | 0.00 | 0.00 | 40 | 1010.3 |
| 20260505000524 | 68 | 190 | 1.0 | 2.0 | 0.00 | 0.00 | 0.00 | 40 | 1010.3 |
| 20260505000420 | 68 | 220 | 2.0 | 4.0 | 0.00 | 0.00 | 0.00 | 40 | 1010.3 |
| 20260505000331 | 68 | 195 | 2.0 | 3.0 | 0.00 | 0.00 | 0.00 | 40 | 1010.2 |
| 20260505000226 | 68 | 192 | 1.0 | 3.0 | 0.00 | 0.00 | 0.00 | 40 | 1010.2 |
| 20260505000142 | 68 | 199 | 1.0 | 3.0 | 0.00 | 0.00 | 0.00 | 39 | 1010.1 |
| 20260505000038 | 68 | 190 | 1.0 | 3.0 | 0.00 | 0.00 | 0.00 | 39 | 1010.1 |
| 20260504235929 | 68 | 199 | 3.0 | 5.0 | 0.00 | 0.00 | 0.00 | 39 | 1010.0 |
| 20260504235825 | 68 | 213 | 2.0 | 4.0 | 0.00 | 0.00 | 0.00 | 39 | 1009.8 |
| 20260504235721 | 68 | 209 | 2.0 | 3.0 | 0.00 | 0.00 | 0.00 | 38 | 1010.0 |
| 20260504235616 | 68 | 208 | 2.0 | 3.0 | 0.00 | 0.00 | 0.00 | 39 | 1009.9 |
| 20260504235548 | 68 | 190 | 2.0 | 3.0 | 0.00 | 0.00 | 0.00 | 39 | 1009.9 |
| 20260504235424 | 69 | 209 | 3.0 | 4.0 | 0.00 | 0.00 | 0.00 | 39 | 1009.9 |
| 20260504235339 | 69 | 216 | 2.0 | 4.0 | 0.00 | 0.00 | 0.00 | 38 | 1009.9 |
| 20260504235231 | 69 | 198 | 3.0 | 4.0 | 0.00 | 0.00 | 0.00 | 38 | 1009.9 |
| 20260504235126 | 69 | 202 | 3.0 | 4.0 | 0.00 | 0.00 | 0.00 | 39 | 1010.3 |
| 20260504235022 | 69 | 206 | 1.0 | 2.0 | 0.00 | 0.00 | 0.00 | 38 | 1009.8 |
| 20260504234917 | 69 | 206 | 2.0 | 3.0 | 0.00 | 0.00 | 0.00 | 37 | 1009.9 |
| 20260504234830 | 69 | 213 | 3.0 | 4.0 | 0.00 | 0.00 | 0.00 | 38 | 1009.9 |
| 20260504234725 | 69 | 204 | 3.0 | 4.0 | 0.00 | 0.00 | 0.00 | 38 | 1010.0 |
| 20260504234621 | 69 | 202 | 4.0 | 6.0 | 0.00 | 0.00 | 0.00 | 37 | 1009.8 |
| 20260504234536 | 69 | 215 | 2.0 | 4.0 | 0.00 | 0.00 | 0.00 | 37 | 1009.8 |
| 20260504234428 | 69 | 236 | 1.0 | 4.0 | 0.00 | 0.00 | 0.00 | 37 | 1009.8 |
| 20260504234324 | 69 | 218 | 3.0 | 6.0 | 0.00 | 0.00 | 0.00 | 37 | 1009.9 |
| 20260504234239 | 69 | 248 | 4.0 | 6.0 | 0.00 | 0.00 | 0.00 | 37 | 1009.6 |
| 20260504234131 | 69 | 200 | 2.0 | 4.0 | 0.00 | 0.00 | 0.00 | 38 | 1009.8 |
| 20260504234026 | 69 | 214 | 3.0 | 4.0 | 0.00 | 0.00 | 0.00 | 37 | 1009.7 |
| 20260504233942 | 69 | 221 | 2.0 | 6.0 | 0.00 | 0.00 | 0.00 | 37 | 1009.9 |
| 20260504233817 | 69 | 197 | 3.0 | 5.0 | 0.00 | 0.00 | 0.00 | 37 | 1009.7 |
| 20260504233729 | 69 | 265 | 4.0 | 7.0 | 0.00 | 0.00 | 0.00 | 37 | 1009.7 |
| 20260504233645 | 69 | 265 | 3.0 | 4.0 | 0.00 | 0.00 | 0.00 | 37 | 1009.6 |
| 20260504233520 | 69 | 210 | 4.0 | 6.0 | 0.00 | 0.00 | 0.00 | 37 | 1009.8 |
| 20260504233436 | 69 | 212 | 4.0 | 6.0 | 0.00 | 0.00 | 0.00 | 37 | 1009.8 |
| 20260504233328 | 69 | 208 | 3.0 | 4.0 | 0.00 | 0.00 | 0.00 | 38 | 1009.8 |
| 20260504233243 | 69 | 208 | 3.0 | 4.0 | 0.00 | 0.00 | 0.00 | 38 | 1009.8 |
| 20260504233119 | 69 | 214 | 1.0 | 3.0 | 0.00 | 0.00 | 0.00 | 37 | 1009.6 |
| 20260504233031 | 69 | 208 | 3.0 | 4.0 | 0.00 | 0.00 | 0.00 | 37 | 1009.7 |
| 20260504232926 | 69 | 208 | 4.0 | 6.0 | 0.00 | 0.00 | 0.00 | 37 | 1009.5 |
| 20260504232821 | 70 | 234 | 3.0 | 5.0 | 0.00 | 0.00 | 0.00 | 37 | 1009.7 |
| 20260504232716 | 70 | 220 | 3.0 | 5.0 | 0.00 | 0.00 | 0.00 | 37 | 1009.7 |
| 20260504232628 | 70 | 211 | 4.0 | 5.0 | 0.00 | 0.00 | 0.00 | 37 | 1009.7 |
| 20260504232523 | 70 | 213 | 3.0 | 4.0 | 0.00 | 0.00 | 0.00 | 37 | 1009.5 |
| 20260504232419 | 70 | 228 | 3.0 | 6.0 | 0.00 | 0.00 | 0.00 | 37 | 1009.7 |
| 20260504232330 | 70 | 199 | 3.0 | 6.0 | 0.00 | 0.00 | 0.00 | 37 | 1009.6 |
| 20260504232226 | 70 | 248 | 3.0 | 5.0 | 0.00 | 0.00 | 0.00 | 37 | 1009.8 |
| 20260504232141 | 70 | 223 | 3.0 | 8.0 | 0.00 | 0.00 | 0.00 | 37 | 1009.6 |
| 20260504232017 | 70 | 206 | 4.0 | 5.0 | 0.00 | 0.00 | 0.00 | 37 | 1009.6 |
| 20260504231929 | 70 | 257 | 2.0 | 4.0 | 0.00 | 0.00 | 0.00 | 37 | 1009.5 |
| 20260504231845 | 70 | 196 | 4.0 | 6.0 | 0.00 | 0.00 | 0.00 | 37 | 1009.6 |
| 20260504231720 | 70 | 218 | 1.0 | 2.0 | 0.00 | 0.00 | 0.00 | 37 | 1009.5 |
| 20260504231616 | 70 | 216 | 4.0 | 6.0 | 0.00 | 0.00 | 0.00 | 36 | 1009.7 |
| 20260504231527 | 70 | 205 | 3.0 | 5.0 | 0.00 | 0.00 | 0.00 | 36 | 1009.7 |
| 20260504231423 | 70 | 205 | 4.0 | 6.0 | 0.00 | 0.00 | 0.00 | 37 | 1009.5 |
| 20260504231319 | 70 | 263 | 3.0 | 5.0 | 0.00 | 0.00 | 0.00 | 36 | 1009.8 |
| 20260504231230 | 70 | 210 | 3.0 | 7.0 | 0.00 | 0.00 | 0.00 | 36 | 1009.6 |
| 20260504231146 | 70 | 249 | 6.0 | 10.0 | 0.00 | 0.00 | 0.00 | 36 | 1009.7 |
| 20260504231022 | 70 | 242 | 2.0 | 6.0 | 0.00 | 0.00 | 0.00 | 36 | 1009.4 |
| 20260504230917 | 70 | 223 | 5.0 | 6.0 | 0.00 | 0.00 | 0.00 | 36 | 1009.5 |
| 20260504230829 | 70 | 200 | 6.0 | 9.0 | 0.00 | 0.00 | 0.00 | 36 | 1009.3 |
| 20260504230725 | 70 | 188 | 4.0 | 7.0 | 0.00 | 0.00 | 0.00 | 36 | 1009.2 |
| 20260504230620 | 70 | 197 | 5.0 | 6.0 | 0.00 | 0.00 | 0.00 | 35 | 1009.3 |
| 20260504230516 | 70 | 205 | 6.0 | 9.0 | 0.00 | 0.00 | 0.00 | 36 | 1009.4 |
| 20260504230427 | 70 | 200 | 2.0 | 4.0 | 0.00 | 0.00 | 0.00 | 37 | 1009.3 |
| 20260504230403 | 70 | 226 | 3.0 | 6.0 | 0.00 | 0.00 | 0.00 | 36 | 1009.5 |
| 20260504230219 | 70 | 224 | 3.0 | 6.0 | 0.00 | 0.00 | 0.00 | 36 | 1009.4 |
| 20260504230131 | 70 | 203 | 4.0 | 6.0 | 0.00 | 0.00 | 0.00 | 36 | 1009.4 |
| 20260504230026 | 71 | 206 | 4.0 | 6.0 | 0.00 | 0.00 | 0.00 | 36 | 1009.2 |
| 20260504225922 | 71 | 226 | 3.0 | 4.0 | 0.00 | 0.00 | 0.00 | 36 | 1009.5 |
| 20260504225817 | 71 | 198 | 3.0 | 4.0 | 0.00 | 0.00 | 0.00 | 36 | 1009.5 |
| 20260504225729 | 71 | 236 | 2.0 | 4.0 | 0.00 | 0.00 | 0.00 | 35 | 1009.4 |
| 20260504225625 | 71 | 203 | 3.0 | 6.0 | 0.00 | 0.00 | 0.00 | 36 | 1009.4 |
| 20260504225540 | 71 | 194 | 3.0 | 4.0 | 0.00 | 0.00 | 0.00 | 36 | 1009.2 |
| 20260504225416 | 71 | 202 | 3.0 | 5.0 | 0.00 | 0.00 | 0.00 | 37 | 1009.4 |
| 20260504225328 | 71 | 200 | 3.0 | 4.0 | 0.00 | 0.00 | 0.00 | 36 | 1009.4 |
| 20260504225243 | 71 | 209 | 2.0 | 4.0 | 0.00 | 0.00 | 0.00 | 35 | 1009.4 |
| 20260504225119 | 71 | 219 | 3.0 | 4.0 | 0.00 | 0.00 | 0.00 | 36 | 1009.4 |
| 20260504225030 | 71 | 217 | 4.0 | 8.0 | 0.00 | 0.00 | 0.00 | 36 | 1009.4 |
| 20260504224926 | 71 | 202 | 3.0 | 4.0 | 0.00 | 0.00 | 0.00 | 36 | 1009.5 |
| 20260504224822 | 71 | 196 | 3.0 | 5.0 | 0.00 | 0.00 | 0.00 | 36 | 1009.2 |
| 20260504224717 | 71 | 230 | 3.0 | 4.0 | 0.00 | 0.00 | 0.00 | 35 | 1009.4 |
| 20260504224629 | 71 | 239 | 3.0 | 6.0 | 0.00 | 0.00 | 0.00 | 35 | 1009.5 |
| 20260504224524 | 71 | 241 | 4.0 | 8.0 | 0.00 | 0.00 | 0.00 | 35 | 1009.5 |
| 20260504224420 | 71 | 208 | 6.0 | 11.0 | 0.00 | 0.00 | 0.00 | 35 | 1009.6 |
| 20260504224316 | 71 | 200 | 4.0 | 7.0 | 0.00 | 0.00 | 0.00 | 35 | 1009.5 |
| 20260504224227 | 71 | 225 | 4.0 | 8.0 | 0.00 | 0.00 | 0.00 | 35 | 1009.4 |
| 20260504224123 | 71 | 202 | 5.0 | 7.0 | 0.00 | 0.00 | 0.00 | 36 | 1009.6 |
| 20260504224039 | 71 | 227 | 3.0 | 4.0 | 0.00 | 0.00 | 0.00 | 37 | 1009.3 |
| 20260504223930 | 71 | 196 | 1.0 | 3.0 | 0.00 | 0.00 | 0.00 | 36 | 1009.5 |
| 20260504223846 | 71 | 222 | 3.0 | 6.0 | 0.00 | 0.00 | 0.00 | 35 | 1009.5 |
| 20260504223722 | 71 | 240 | 3.0 | 6.0 | 0.00 | 0.00 | 0.00 | 36 | 1009.3 |
| 20260504223637 | 71 | 220 | 0.0 | 2.0 | 0.00 | 0.00 | 0.00 | 35 | 1009.4 |
| 20260504223529 | 71 | 239 | 2.0 | 6.0 | 0.00 | 0.00 | 0.00 | 35 | 1009.5 |
| 20260504223424 | 71 | 205 | 4.0 | 7.0 | 0.00 | 0.00 | 0.00 | 35 | 1009.5 |
| 20260504223320 | 71 | 206 | 4.0 | 6.0 | 0.00 | 0.00 | 0.00 | 35 | 1009.4 |
| 20260504223215 | 71 | 216 | 2.0 | 6.0 | 0.00 | 0.00 | 0.00 | 35 | 1009.5 |
| 20260504223127 | 71 | 194 | 5.0 | 6.0 | 0.00 | 0.00 | 0.00 | 35 | 1009.5 |
| 20260504223023 | 71 | 278 | 4.0 | 7.0 | 0.00 | 0.00 | 0.00 | 35 | 1009.5 |
| 20260504222918 | 71 | 224 | 4.0 | 5.0 | 0.00 | 0.00 | 0.00 | 35 | 1009.4 |
| 20260504222830 | 71 | 186 | 2.0 | 4.0 | 0.00 | 0.00 | 0.00 | 36 | 1009.5 |
| 20260504222726 | 71 | 204 | 4.0 | 6.0 | 0.00 | 0.00 | 0.00 | 35 | 1009.7 |
| 20260504222621 | 71 | 196 | 6.0 | 9.0 | 0.00 | 0.00 | 0.00 | 35 | 1009.3 |
| 20260504222517 | 71 | 229 | 3.0 | 6.0 | 0.00 | 0.00 | 0.00 | 35 | 1009.5 |
| 20260504222428 | 71 | 210 | 3.0 | 6.0 | 0.00 | 0.00 | 0.00 | 35 | 1009.4 |
| 20260504222324 | 71 | 208 | 2.0 | 4.0 | 0.00 | 0.00 | 0.00 | 34 | 1009.4 |
| 20260504222240 | 71 | 235 | 2.0 | 3.0 | 0.00 | 0.00 | 0.00 | 34 | 1009.5 |
| 20260504222115 | 71 | 224 | 3.0 | 5.0 | 0.00 | 0.00 | 0.00 | 35 | 1009.4 |
| 20260504222027 | 72 | 204 | 3.0 | 4.0 | 0.00 | 0.00 | 0.00 | 36 | 1009.5 |
| 20260504221923 | 71 | 200 | 3.0 | 7.0 | 0.00 | 0.00 | 0.00 | 35 | 1009.4 |
| 20260504221818 | 71 | 240 | 3.0 | 5.0 | 0.00 | 0.00 | 0.00 | 34 | 1009.5 |
| 20260504221730 | 71 | 207 | 2.0 | 3.0 | 0.00 | 0.00 | 0.00 | 35 | 1009.5 |
| 20260504221626 | 71 | 203 | 3.0 | 5.0 | 0.00 | 0.00 | 0.00 | 35 | 1009.5 |
| 20260504221521 | 71 | 179 | 3.0 | 5.0 | 0.00 | 0.00 | 0.00 | 34 | 1009.6 |
| 20260504221437 | 71 | 205 | 3.0 | 6.0 | 0.00 | 0.00 | 0.00 | 35 | 1009.5 |
| 20260504221329 | 71 | 247 | 2.0 | 3.0 | 0.00 | 0.00 | 0.00 | 34 | 1009.5 |
| 20260504221224 | 71 | 195 | 2.0 | 9.0 | 0.00 | 0.00 | 0.00 | 34 | 1009.6 |
| 20260504221120 | 71 | 191 | 5.0 | 9.0 | 0.00 | 0.00 | 0.00 | 34 | 1009.5 |
| 20260504221016 | 72 | 212 | 3.0 | 5.0 | 0.00 | 0.00 | 0.00 | 35 | 1009.4 |
| 20260504220927 | 72 | 207 | 4.0 | 7.0 | 0.00 | 0.00 | 0.00 | 34 | 1009.5 |
| 20260504220823 | 72 | 222 | 4.0 | 7.0 | 0.00 | 0.00 | 0.00 | 34 | 1009.8 |
| 20260504220718 | 72 | 236 | 4.0 | 6.0 | 0.00 | 0.00 | 0.00 | 34 | 1009.6 |
| 20260504220630 | 72 | 196 | 5.0 | 9.0 | 0.00 | 0.00 | 0.00 | 35 | 1009.6 |
| 20260504220526 | 72 | 213 | 3.0 | 4.0 | 0.00 | 0.00 | 0.00 | 35 | 1009.6 |
| 20260504220421 | 72 | 230 | 2.0 | 4.0 | 0.00 | 0.00 | 0.00 | 34 | 1009.7 |
| 20260504220317 | 72 | 221 | 2.0 | 6.0 | 0.00 | 0.00 | 0.00 | 34 | 1009.6 |
| 20260504220228 | 72 | 208 | 3.0 | 4.0 | 0.00 | 0.00 | 0.00 | 35 | 1009.8 |
| 20260504220124 | 72 | 267 | 2.0 | 3.0 | 0.00 | 0.00 | 0.00 | 34 | 1009.7 |
| 20260504220019 | 72 | 218 | 2.0 | 3.0 | 0.00 | 0.00 | 0.00 | 35 | 1009.6 |
| 20260504215915 | 72 | 198 | 2.0 | 4.0 | 0.00 | 0.00 | 0.00 | 35 | 1009.7 |
| 20260504215827 | 72 | 193 | 3.0 | 4.0 | 0.00 | 0.00 | 0.00 | 34 | 1009.6 |
| 20260504215723 | 72 | 253 | 2.0 | 5.0 | 0.00 | 0.00 | 0.00 | 33 | 1009.7 |
| 20260504215638 | 72 | 206 | 4.0 | 6.0 | 0.00 | 0.00 | 0.00 | 34 | 1009.8 |
| 20260504215530 | 72 | 218 | 3.0 | 5.0 | 0.00 | 0.00 | 0.00 | 34 | 1009.7 |
| 20260504215425 | 72 | 212 | 3.0 | 8.0 | 0.00 | 0.00 | 0.00 | 34 | 1009.7 |
| 20260504215341 | 72 | 210 | 5.0 | 7.0 | 0.00 | 0.00 | 0.00 | 35 | 1009.7 |
| 20260504215217 | 72 | 210 | 3.0 | 7.0 | 0.00 | 0.00 | 0.00 | 35 | 1009.6 |
| 20260504215129 | 72 | 218 | 3.0 | 4.0 | 0.00 | 0.00 | 0.00 | 34 | 1009.7 |
| 20260504215024 | 72 | 217 | 5.0 | 9.0 | 0.00 | 0.00 | 0.00 | 34 | 1009.8 |
| 20260504214920 | 72 | 220 | 4.0 | 6.0 | 0.00 | 0.00 | 0.00 | 34 | 1009.7 |
| 20260504214815 | 72 | 211 | 5.0 | 7.0 | 0.00 | 0.00 | 0.00 | 34 | 1009.8 |
| 20260504214727 | 72 | 222 | 2.0 | 6.0 | 0.00 | 0.00 | 0.00 | 34 | 1009.9 |
| 20260504214623 | 72 | 226 | 4.0 | 9.0 | 0.00 | 0.00 | 0.00 | 34 | 1009.8 |
| 20260504214518 | 72 | 203 | 3.0 | 7.0 | 0.00 | 0.00 | 0.00 | 34 | 1009.7 |
| 20260504214430 | 72 | 197 | 6.0 | 9.0 | 0.00 | 0.00 | 0.00 | 34 | 1009.8 |
| 20260504214345 | 72 | 239 | 4.0 | 10.0 | 0.00 | 0.00 | 0.00 | 34 | 1009.7 |
| 20260504214221 | 72 | 37 | 1.0 | 3.0 | 0.00 | 0.00 | 0.00 | 34 | 1009.8 |
| 20260504214117 | 72 | 220 | 3.0 | 4.0 | 0.00 | 0.00 | 0.00 | 34 | 1009.6 |
| 20260504214028 | 72 | 228 | 2.0 | 3.0 | 0.00 | 0.00 | 0.00 | 34 | 1009.8 |
| 20260504213924 | 73 | 195 | 3.0 | 4.0 | 0.00 | 0.00 | 0.00 | 34 | 1009.9 |
| 20260504213820 | 72 | 237 | 3.0 | 6.0 | 0.00 | 0.00 | 0.00 | 35 | 1009.9 |
| 20260504213715 | 72 | 208 | 4.0 | 5.0 | 0.00 | 0.00 | 0.00 | 35 | 1010.1 |
| 20260504213647 | 72 | 218 | 3.0 | 4.0 | 0.00 | 0.00 | 0.00 | 34 | 1009.9 |
| 20260504213522 | 72 | 284 | 2.0 | 4.0 | 0.00 | 0.00 | 0.00 | 33 | 1009.7 |
| 20260504213418 | 72 | 214 | 4.0 | 6.0 | 0.00 | 0.00 | 0.00 | 34 | 1009.8 |
| 20260504213330 | 72 | 201 | 3.0 | 6.0 | 0.00 | 0.00 | 0.00 | 33 | 1009.9 |
| 20260504213225 | 72 | 288 | 3.0 | 6.0 | 0.00 | 0.00 | 0.00 | 33 | 1009.9 |
| 20260504213121 | 72 | 269 | 3.0 | 6.0 | 0.00 | 0.00 | 0.00 | 33 | 1010.0 |
| 20260504213016 | 73 | 224 | 3.0 | 7.0 | 0.00 | 0.00 | 0.00 | 34 | 1009.9 |
| 20260504212928 | 73 | 203 | 6.0 | 9.0 | 0.00 | 0.00 | 0.00 | 34 | 1010.0 |
| 20260504212824 | 72 | 183 | 5.0 | 9.0 | 0.00 | 0.00 | 0.00 | 34 | 1010.0 |
| 20260504212739 | 72 | 210 | 4.0 | 8.0 | 0.00 | 0.00 | 0.00 | 34 | 1009.8 |
| 20260504212631 | 72 | 206 | 3.0 | 6.0 | 0.00 | 0.00 | 0.00 | 35 | 1009.7 |
| 20260504212546 | 72 | 213 | 3.0 | 4.0 | 0.00 | 0.00 | 0.00 | 33 | 1009.9 |
| 20260504212421 | 73 | 208 | 4.0 | 7.0 | 0.00 | 0.00 | 0.00 | 34 | 1010.0 |
| 20260504212317 | 73 | 211 | 4.0 | 10.0 | 0.00 | 0.00 | 0.00 | 34 | 1009.9 |
| 20260504212229 | 73 | 204 | 7.0 | 14.0 | 0.00 | 0.00 | 0.00 | 35 | 1009.8 |
| 20260504212125 | 73 | 194 | 6.0 | 9.0 | 0.00 | 0.00 | 0.00 | 34 | 1009.9 |
| 20260504212020 | 73 | 197 | 4.0 | 6.0 | 0.00 | 0.00 | 0.00 | 34 | 1010.0 |
| 20260504211916 | 73 | 192 | 6.0 | 9.0 | 0.00 | 0.00 | 0.00 | 34 | 1009.9 |
| 20260504211827 | 73 | 199 | 5.0 | 6.0 | 0.00 | 0.00 | 0.00 | 34 | 1010.0 |
| 20260504211723 | 73 | 226 | 3.0 | 6.0 | 0.00 | 0.00 | 0.00 | 34 | 1010.2 |
| 20260504211618 | 73 | 200 | 4.0 | 5.0 | 0.00 | 0.00 | 0.00 | 34 | 1009.8 |
| 20260504211530 | 73 | 229 | 4.0 | 6.0 | 0.00 | 0.00 | 0.00 | 34 | 1010.1 |
| 20260504211425 | 73 | 220 | 3.0 | 5.0 | 0.00 | 0.00 | 0.00 | 33 | 1010.0 |
| 20260504211321 | 73 | 217 | 3.0 | 6.0 | 0.00 | 0.00 | 0.00 | 34 | 1009.9 |
| 20260504211237 | 73 | 220 | 3.0 | 7.0 | 0.00 | 0.00 | 0.00 | 34 | 1010.0 |
| 20260504211128 | 73 | 207 | 3.0 | 9.0 | 0.00 | 0.00 | 0.00 | 34 | 1010.0 |
| 20260504211104 | 73 | 192 | 5.0 | 8.0 | 0.00 | 0.00 | 0.00 | 35 | 1010.1 |
| 20260504210919 | 73 | 305 | 2.0 | 5.0 | 0.00 | 0.00 | 0.00 | 34 | 1010.0 |
| 20260504210815 | 72 | 240 | 3.0 | 4.0 | 0.00 | 0.00 | 0.00 | 34 | 1009.9 |
| 20260504210807 | 72 | 225 | 3.0 | 6.0 | 0.00 | 0.00 | 0.00 | 34 | 1009.8 |
| 20260504210622 | 72 | 224 | 3.0 | 5.0 | 0.00 | 0.00 | 0.00 | 35 | 1010.1 |
| 20260504210518 | 72 | 200 | 5.0 | 6.0 | 0.00 | 0.00 | 0.00 | 33 | 1010.2 |
| 20260504210510 | 72 | 198 | 7.0 | 10.0 | 0.00 | 0.00 | 0.00 | 34 | 1010.0 |
| 20260504210345 | 73 | 212 | 5.0 | 9.0 | 0.00 | 0.00 | 0.00 | 34 | 1009.9 |
| 20260504210221 | 73 | 203 | 5.0 | 7.0 | 0.00 | 0.00 | 0.00 | 34 | 1009.9 |
| 20260504210116 | 73 | 213 | 3.0 | 5.0 | 0.00 | 0.00 | 0.00 | 35 | 1010.0 |
| 20260504210028 | 73 | 211 | 6.0 | 9.0 | 0.00 | 0.00 | 0.00 | 34 | 1009.8 |
| 20260504205923 | 73 | 219 | 3.0 | 5.0 | 0.00 | 0.00 | 0.00 | 36 | 1009.9 |
| 20260504205819 | 73 | 197 | 4.0 | 9.0 | 0.00 | 0.00 | 0.00 | 35 | 1009.9 |
| 20260504205750 | 73 | 207 | 8.0 | 12.0 | 0.00 | 0.00 | 0.00 | 34 | 1009.9 |
| 20260504205626 | 73 | 201 | 6.0 | 12.0 | 0.00 | 0.00 | 0.00 | 35 | 1009.8 |
| 20260504205521 | 72 | 198 | 4.0 | 6.0 | 0.00 | 0.00 | 0.00 | 35 | 1009.9 |
| 20260504205437 | 72 | 224 | 3.0 | 5.0 | 0.00 | 0.00 | 0.00 | 34 | 1009.8 |
| 20260504205328 | 72 | 241 | 2.0 | 4.0 | 0.00 | 0.00 | 0.00 | 35 | 1009.7 |
| 20260504205224 | 72 | 199 | 2.0 | 4.0 | 0.00 | 0.00 | 0.00 | 36 | 1010.0 |
| 20260504205119 | 72 | 207 | 3.0 | 6.0 | 0.00 | 0.00 | 0.00 | 34 | 1009.9 |
| 20260504205051 | 72 | 246 | 5.0 | 6.0 | 0.00 | 0.00 | 0.00 | 34 | 1010.0 |
| 20260504204926 | 72 | 229 | 4.0 | 6.0 | 0.00 | 0.00 | 0.00 | 34 | 1010.1 |
| 20260504204822 | 72 | 199 | 2.0 | 4.0 | 0.00 | 0.00 | 0.00 | 34 | 1009.9 |
| 20260504204717 | 72 | 222 | 2.0 | 3.0 | 0.00 | 0.00 | 0.00 | 33 | 1009.8 |
| 20260504204629 | 72 | 213 | 2.0 | 4.0 | 0.00 | 0.00 | 0.00 | 34 | 1010.0 |
| 20260504204524 | 73 | 239 | 3.0 | 5.0 | 0.00 | 0.00 | 0.00 | 33 | 1009.8 |
| 20260504204440 | 73 | 223 | 2.0 | 6.0 | 0.00 | 0.00 | 0.00 | 33 | 1009.7 |
| 20260504204315 | 73 | 208 | 5.0 | 9.0 | 0.00 | 0.00 | 0.00 | 34 | 1009.9 |
| 20260504204227 | 73 | 216 | 5.0 | 6.0 | 0.00 | 0.00 | 0.00 | 34 | 1010.0 |
| 20260504204122 | 73 | 207 | 3.0 | 5.0 | 0.00 | 0.00 | 0.00 | 34 | 1009.9 |
| 20260504204018 | 73 | 201 | 4.0 | 6.0 | 0.00 | 0.00 | 0.00 | 33 | 1009.9 |
| 20260504203929 | 73 | 214 | 4.0 | 5.0 | 0.00 | 0.00 | 0.00 | 34 | 1009.8 |
| 20260504203824 | 73 | 198 | 5.0 | 7.0 | 0.00 | 0.00 | 0.00 | 33 | 1009.8 |
| 20260504203720 | 73 | 203 | 3.0 | 4.0 | 0.00 | 0.00 | 0.00 | 34 | 1009.8 |
| 20260504203615 | 73 | 195 | 5.0 | 7.0 | 0.00 | 0.00 | 0.00 | 32 | 1010.0 |
| 20260504203526 | 73 | 203 | 5.0 | 6.0 | 0.00 | 0.00 | 0.00 | 33 | 1009.8 |
| 20260504203421 | 73 | 200 | 6.0 | 8.0 | 0.00 | 0.00 | 0.00 | 33 | 1009.8 |
| 20260504203337 | 73 | 205 | 6.0 | 9.0 | 0.00 | 0.00 | 0.00 | 35 | 1009.8 |
| 20260504203228 | 73 | 205 | 5.0 | 8.0 | 0.00 | 0.00 | 0.00 | 35 | 1009.9 |
| 20260504203124 | 73 | 201 | 6.0 | 13.0 | 0.00 | 0.00 | 0.00 | 33 | 1009.8 |
| 20260504203019 | 74 | 217 | 9.0 | 13.0 | 0.00 | 0.00 | 0.00 | 32 | 1009.9 |
| 20260504202930 | 74 | 212 | 4.0 | 9.0 | 0.00 | 0.00 | 0.00 | 33 | 1010.0 |
| 20260504202846 | 74 | 255 | 3.0 | 5.0 | 0.00 | 0.00 | 0.00 | 34 | 1009.9 |
| 20260504202722 | 73 | 210 | 3.0 | 4.0 | 0.00 | 0.00 | 0.00 | 35 | 1010.0 |
| 20260504202617 | 73 | 25 | 4.0 | 5.0 | 0.00 | 0.00 | 0.00 | 33 | 1010.0 |
| 20260504202529 | 73 | 219 | 2.0 | 5.0 | 0.00 | 0.00 | 0.00 | 33 | 1009.8 |
| 20260504202425 | 73 | 357 | 2.0 | 5.0 | 0.00 | 0.00 | 0.00 | 33 | 1010.0 |
| 20260504202320 | 73 | 220 | 3.0 | 5.0 | 0.00 | 0.00 | 0.00 | 32 | 1009.9 |
| 20260504202216 | 74 | 207 | 4.0 | 10.0 | 0.00 | 0.00 | 0.00 | 33 | 1010.1 |
| 20260504202127 | 74 | 231 | 2.0 | 4.0 | 0.00 | 0.00 | 0.00 | 33 | 1009.9 |
| 20260504202023 | 74 | 199 | 5.0 | 6.0 | 0.00 | 0.00 | 0.00 | 32 | 1009.9 |
| 20260504201918 | 74 | 209 | 3.0 | 5.0 | 0.00 | 0.00 | 0.00 | 33 | 1009.9 |
| 20260504201830 | 74 | 237 | 5.0 | 9.0 | 0.00 | 0.00 | 0.00 | 32 | 1010.1 |
| 20260504201725 | 74 | 204 | 4.0 | 8.0 | 0.00 | 0.00 | 0.00 | 34 | 1010.0 |
| 20260504201641 | 74 | 218 | 3.0 | 4.0 | 0.00 | 0.00 | 0.00 | 34 | 1009.8 |
| 20260504201516 | 74 | 196 | 4.0 | 7.0 | 0.00 | 0.00 | 0.00 | 32 | 1010.0 |
| 20260504201428 | 74 | 215 | 3.0 | 6.0 | 0.00 | 0.00 | 0.00 | 34 | 1010.2 |
| 20260504201323 | 74 | 271 | 2.0 | 5.0 | 0.00 | 0.00 | 0.00 | 33 | 1010.2 |
| 20260504201239 | 74 | 356 | 1.0 | 3.0 | 0.00 | 0.00 | 0.00 | 33 | 1010.0 |
| 20260504201130 | 74 | 252 | 2.0 | 3.0 | 0.00 | 0.00 | 0.00 | 33 | 1010.0 |
| 20260504201026 | 74 | 216 | 3.0 | 8.0 | 0.00 | 0.00 | 0.00 | 33 | 1010.0 |
| 20260504200941 | 74 | 195 | 2.0 | 6.0 | 0.00 | 0.00 | 0.00 | 34 | 1010.1 |
| 20260504200836 | 74 | 201 | 4.0 | 5.0 | 0.00 | 0.00 | 0.00 | 34 | 1010.2 |
| 20260504200748 | 74 | 212 | 5.0 | 7.0 | 0.00 | 0.00 | 0.00 | 35 | 1010.2 |
| 20260504200623 | 74 | 211 | 5.0 | 6.0 | 0.00 | 0.00 | 0.00 | 33 | 1010.1 |
| 20260504200519 | 74 | 207 | 5.0 | 7.0 | 0.00 | 0.00 | 0.00 | 33 | 1010.0 |
| 20260504200431 | 74 | 201 | 6.0 | 10.0 | 0.00 | 0.00 | 0.00 | 33 | 1010.0 |
| 20260504200325 | 74 | 293 | 4.0 | 6.0 | 0.00 | 0.00 | 0.00 | 32 | 1009.9 |
| 20260504200221 | 74 | 293 | 2.0 | 5.0 | 0.00 | 0.00 | 0.00 | 33 | 1010.1 |
| 20260504200136 | 74 | 212 | 3.0 | 6.0 | 0.00 | 0.00 | 0.00 | 34 | 1010.1 |
| 20260504200028 | 74 | 216 | 5.0 | 8.0 | 0.00 | 0.00 | 0.00 | 32 | 1010.0 |
| 20260504195924 | 74 | 227 | 2.0 | 5.0 | 0.00 | 0.00 | 0.00 | 32 | 1009.9 |
| 20260504195819 | 74 | 247 | 4.0 | 5.0 | 0.00 | 0.00 | 0.00 | 34 | 1010.0 |
| 20260504195750 | 74 | 199 | 5.0 | 8.0 | 0.00 | 0.00 | 0.00 | 34 | 1010.2 |
| 20260504195626 | 74 | 203 | 6.0 | 8.0 | 0.00 | 0.00 | 0.00 | 34 | 1010.1 |
| 20260504195521 | 74 | 203 | 5.0 | 7.0 | 0.00 | 0.00 | 0.00 | 34 | 1010.2 |
| 20260504195417 | 74 | 201 | 4.0 | 7.0 | 0.00 | 0.00 | 0.00 | 35 | 1010.2 |
| 20260504195329 | 74 | 183 | 3.0 | 5.0 | 0.00 | 0.00 | 0.00 | 34 | 1010.1 |
| 20260504195244 | 74 | 219 | 3.0 | 6.0 | 0.00 | 0.00 | 0.00 | 35 | 1010.2 |
| 20260504195120 | 74 | 210 | 5.0 | 7.0 | 0.00 | 0.00 | 0.00 | 35 | 1010.2 |
| 20260504195016 | 74 | 216 | 5.0 | 9.0 | 0.00 | 0.00 | 0.00 | 34 | 1010.1 |
| 20260504194927 | 74 | 204 | 5.0 | 9.0 | 0.00 | 0.00 | 0.00 | 35 | 1010.3 |
| 20260504194823 | 74 | 251 | 3.0 | 4.0 | 0.00 | 0.00 | 0.00 | 34 | 1010.1 |
| 20260504194718 | 74 | 206 | 5.0 | 6.0 | 0.00 | 0.00 | 0.00 | 35 | 1010.1 |
| 20260504194630 | 74 | 198 | 5.0 | 8.0 | 0.00 | 0.00 | 0.00 | 33 | 1010.2 |
| 20260504194526 | 73 | 204 | 2.0 | 4.0 | 0.00 | 0.00 | 0.00 | 34 | 1010.2 |
| 20260504194421 | 73 | 220 | 4.0 | 6.0 | 0.00 | 0.00 | 0.00 | 35 | 1010.1 |
| 20260504194317 | 73 | 206 | 4.0 | 7.0 | 0.00 | 0.00 | 0.00 | 34 | 1010.1 |
| 20260504194228 | 73 | 276 | 3.0 | 7.0 | 0.00 | 0.00 | 0.00 | 34 | 1010.1 |
| 20260504194124 | 73 | 202 | 5.0 | 9.0 | 0.00 | 0.00 | 0.00 | 36 | 1010.0 |
| 20260504194019 | 74 | 197 | 6.0 | 10.0 | 0.00 | 0.00 | 0.00 | 34 | 1010.1 |
| 20260504193915 | 74 | 216 | 4.0 | 7.0 | 0.00 | 0.00 | 0.00 | 34 | 1010.2 |
| 20260504193827 | 74 | 210 | 5.0 | 8.0 | 0.00 | 0.00 | 0.00 | 34 | 1010.1 |
| 20260504193722 | 74 | 210 | 5.0 | 9.0 | 0.00 | 0.00 | 0.00 | 34 | 1010.1 |
| 20260504193618 | 74 | 212 | 5.0 | 7.0 | 0.00 | 0.00 | 0.00 | 35 | 1010.2 |
| 20260504193530 | 74 | 208 | 5.0 | 9.0 | 0.00 | 0.00 | 0.00 | 36 | 1010.1 |
| 20260504193445 | 74 | 276 | 2.0 | 4.0 | 0.00 | 0.00 | 0.00 | 34 | 1010.2 |
| 20260504193321 | 74 | 197 | 3.0 | 4.0 | 0.00 | 0.00 | 0.00 | 33 | 1010.2 |
| 20260504193216 | 74 | 202 | 3.0 | 5.0 | 0.00 | 0.00 | 0.00 | 33 | 1010.2 |
| 20260504193128 | 73 | 192 | 2.0 | 3.0 | 0.00 | 0.00 | 0.00 | 34 | 1010.2 |
| 20260504193024 | 73 | 256 | 3.0 | 4.0 | 0.00 | 0.00 | 0.00 | 36 | 1010.3 |
| 20260504192919 | 73 | 250 | 2.0 | 4.0 | 0.00 | 0.00 | 0.00 | 34 | 1010.3 |
| 20260504192831 | 73 | 291 | 3.0 | 6.0 | 0.00 | 0.00 | 0.00 | 34 | 1010.2 |
| 20260504192746 | 73 | 212 | 3.0 | 6.0 | 0.00 | 0.00 | 0.00 | 35 | 1010.2 |
| 20260504192622 | 73 | 199 | 5.0 | 8.0 | 0.00 | 0.00 | 0.00 | 33 | 1010.2 |
| 20260504192517 | 74 | 189 | 7.0 | 9.0 | 0.00 | 0.00 | 0.00 | 32 | 1010.2 |
| 20260504192429 | 74 | 220 | 5.0 | 8.0 | 0.00 | 0.00 | 0.00 | 34 | 1010.5 |
| 20260504192325 | 74 | 197 | 3.0 | 5.0 | 0.00 | 0.00 | 0.00 | 35 | 1010.2 |
| 20260504192240 | 74 | 247 | 3.0 | 6.0 | 0.00 | 0.00 | 0.00 | 35 | 1010.5 |
| 20260504192116 | 73 | 222 | 4.0 | 8.0 | 0.00 | 0.00 | 0.00 | 35 | 1010.4 |
| 20260504192048 | 73 | 210 | 3.0 | 4.0 | 0.00 | 0.00 | 0.00 | 36 | 1010.5 |
| 20260504191943 | 73 | 236 | 3.0 | 6.0 | 0.00 | 0.00 | 0.00 | 34 | 1010.3 |
| 20260504191819 | 73 | 254 | 4.0 | 5.0 | 0.00 | 0.00 | 0.00 | 35 | 1010.2 |
| 20260504191731 | 73 | 195 | 5.0 | 6.0 | 0.00 | 0.00 | 0.00 | 34 | 1010.4 |
| 20260504191646 | 73 | 248 | 3.0 | 7.0 | 0.00 | 0.00 | 0.00 | 34 | 1010.3 |
| 20260504191522 | 73 | 200 | 6.0 | 9.0 | 0.00 | 0.00 | 0.00 | 34 | 1010.2 |
| 20260504191417 | 73 | 211 | 7.0 | 12.0 | 0.00 | 0.00 | 0.00 | 35 | 1010.4 |
| 20260504191349 | 74 | 197 | 5.0 | 9.0 | 0.00 | 0.00 | 0.00 | 34 | 1010.6 |
| 20260504191225 | 74 | 216 | 5.0 | 13.0 | 0.00 | 0.00 | 0.00 | 33 | 1010.6 |
| 20260504191120 | 74 | 232 | 3.0 | 4.0 | 0.00 | 0.00 | 0.00 | 36 | 1010.7 |
| 20260504191016 | 74 | 193 | 2.0 | 4.0 | 0.00 | 0.00 | 0.00 | 34 | 1010.6 |
| 20260504190928 | 74 | 286 | 2.0 | 7.0 | 0.00 | 0.00 | 0.00 | 34 | 1010.4 |
| 20260504190823 | 74 | 312 | 3.0 | 8.0 | 0.00 | 0.00 | 0.00 | 33 | 1010.4 |
| 20260504190719 | 73 | 219 | 3.0 | 7.0 | 0.00 | 0.00 | 0.00 | 33 | 1010.5 |
| 20260504190630 | 73 | 273 | 3.0 | 9.0 | 0.00 | 0.00 | 0.00 | 33 | 1010.6 |
| 20260504190526 | 73 | 232 | 3.0 | 4.0 | 0.00 | 0.00 | 0.00 | 34 | 1010.4 |
| 20260504190421 | 73 | 229 | 3.0 | 8.0 | 0.00 | 0.00 | 0.00 | 34 | 1010.6 |
| 20260504190357 | 73 | 195 | 6.0 | 9.0 | 0.00 | 0.00 | 0.00 | 34 | 1010.7 |
| 20260504190229 | 73 | 204 | 6.0 | 8.0 | 0.00 | 0.00 | 0.00 | 34 | 1010.7 |
| 20260504190144 | 73 | 197 | 7.0 | 13.0 | 0.00 | 0.00 | 0.00 | 34 | 1010.6 |
| 20260504190020 | 73 | 197 | 5.0 | 9.0 | 0.00 | 0.00 | 0.00 | 35 | 1010.5 |
| 20260504185915 | 73 | 189 | 5.0 | 6.0 | 0.00 | 0.00 | 0.00 | 36 | 1010.6 |
| 20260504185827 | 73 | 167 | 2.0 | 4.0 | 0.00 | 0.00 | 0.00 | 35 | 1010.5 |
| 20260504185723 | 73 | 222 | 4.0 | 6.0 | 0.00 | 0.00 | 0.00 | 35 | 1010.6 |
| 20260504185618 | 73 | 199 | 3.0 | 5.0 | 0.00 | 0.00 | 0.00 | 37 | 1010.7 |
| 20260504185530 | 72 | 207 | 4.0 | 5.0 | 0.00 | 0.00 | 0.00 | 37 | 1010.6 |
| 20260504185425 | 72 | 211 | 5.0 | 7.0 | 0.00 | 0.00 | 0.00 | 35 | 1010.9 |
| 20260504185321 | 72 | 211 | 3.0 | 5.0 | 0.00 | 0.00 | 0.00 | 37 | 1010.7 |
| 20260504185236 | 72 | 206 | 4.0 | 7.0 | 0.00 | 0.00 | 0.00 | 35 | 1010.8 |
| 20260504185128 | 72 | 203 | 5.0 | 7.0 | 0.00 | 0.00 | 0.00 | 35 | 1011.0 |
| 20260504185024 | 73 | 201 | 8.0 | 13.0 | 0.00 | 0.00 | 0.00 | 35 | 1011.0 |
| 20260504184919 | 73 | 226 | 6.0 | 9.0 | 0.00 | 0.00 | 0.00 | 35 | 1010.8 |
| 20260504184831 | 73 | 200 | 5.0 | 8.0 | 0.00 | 0.00 | 0.00 | 36 | 1010.9 |
| 20260504184726 | 73 | 210 | 3.0 | 7.0 | 0.00 | 0.00 | 0.00 | 34 | 1010.9 |
| 20260504184622 | 72 | 215 | 4.0 | 6.0 | 0.00 | 0.00 | 0.00 | 37 | 1010.9 |
| 20260504184517 | 72 | 213 | 5.0 | 7.0 | 0.00 | 0.00 | 0.00 | 35 | 1010.9 |
| 20260504184429 | 72 | 197 | 6.0 | 7.0 | 0.00 | 0.00 | 0.00 | 35 | 1011.0 |
| 20260504184325 | 72 | 194 | 8.0 | 13.0 | 0.00 | 0.00 | 0.00 | 34 | 1011.1 |
| 20260504184221 | 72 | 206 | 5.0 | 10.0 | 0.00 | 0.00 | 0.00 | 35 | 1011.0 |
| 20260504184116 | 72 | 207 | 4.0 | 7.0 | 0.00 | 0.00 | 0.00 | 36 | 1010.9 |
| 20260504184028 | 72 | 201 | 4.0 | 7.0 | 0.00 | 0.00 | 0.00 | 36 | 1010.9 |
| 20260504184003 | 72 | 218 | 4.0 | 8.0 | 0.00 | 0.00 | 0.00 | 35 | 1010.9 |
| 20260504183819 | 72 | 206 | 6.0 | 12.0 | 0.00 | 0.00 | 0.00 | 34 | 1011.2 |
| 20260504183730 | 72 | 211 | 6.0 | 11.0 | 0.00 | 0.00 | 0.00 | 34 | 1011.1 |
| 20260504183626 | 73 | 232 | 5.0 | 6.0 | 0.00 | 0.00 | 0.00 | 35 | 1011.0 |
| 20260504183522 | 73 | 204 | 4.0 | 5.0 | 0.00 | 0.00 | 0.00 | 34 | 1011.1 |
| 20260504183437 | 72 | 217 | 3.0 | 5.0 | 0.00 | 0.00 | 0.00 | 36 | 1011.1 |
| 20260504183329 | 72 | 210 | 4.0 | 6.0 | 0.00 | 0.00 | 0.00 | 35 | 1010.9 |
| 20260504183224 | 72 | 206 | 5.0 | 7.0 | 0.00 | 0.00 | 0.00 | 35 | 1011.2 |
| 20260504183120 | 72 | 212 | 5.0 | 7.0 | 0.00 | 0.00 | 0.00 | 34 | 1011.2 |
| 20260504183036 | 72 | 253 | 3.0 | 6.0 | 0.00 | 0.00 | 0.00 | 33 | 1011.2 |
| 20260504182928 | 73 | 228 | 5.0 | 12.0 | 0.00 | 0.00 | 0.00 | 33 | 1011.1 |
| 20260504182823 | 73 | 194 | 4.0 | 6.0 | 0.00 | 0.00 | 0.00 | 35 | 1011.0 |
| 20260504182719 | 73 | 172 | 3.0 | 4.0 | 0.00 | 0.00 | 0.00 | 35 | 1011.2 |
| 20260504182630 | 73 | 257 | 4.0 | 10.0 | 0.00 | 0.00 | 0.00 | 34 | 1011.1 |
| 20260504182526 | 73 | 216 | 4.0 | 7.0 | 0.00 | 0.00 | 0.00 | 36 | 1011.2 |
| 20260504182422 | 72 | 226 | 3.0 | 5.0 | 0.00 | 0.00 | 0.00 | 36 | 1011.2 |
| 20260504182317 | 73 | 208 | 3.0 | 9.0 | 0.00 | 0.00 | 0.00 | 35 | 1011.1 |
| 20260504182229 | 72 | 197 | 5.0 | 12.0 | 0.00 | 0.00 | 0.00 | 35 | 1011.2 |
| 20260504182124 | 72 | 241 | 3.0 | 5.0 | 0.00 | 0.00 | 0.00 | 37 | 1011.1 |
| 20260504182020 | 72 | 208 | 5.0 | 8.0 | 0.00 | 0.00 | 0.00 | 37 | 1011.1 |
| 20260504181936 | 72 | 202 | 7.0 | 12.0 | 0.00 | 0.00 | 0.00 | 35 | 1011.2 |
| 20260504181907 | 72 | 193 | 6.0 | 9.0 | 0.00 | 0.00 | 0.00 | 35 | 1011.0 |
| 20260504181723 | 72 | 191 | 6.0 | 9.0 | 0.00 | 0.00 | 0.00 | 35 | 1011.4 |
| 20260504181618 | 72 | 190 | 2.0 | 3.0 | 0.00 | 0.00 | 0.00 | 37 | 1011.3 |
| 20260504181530 | 72 | 196 | 4.0 | 10.0 | 0.00 | 0.00 | 0.00 | 36 | 1011.5 |
| 20260504181425 | 72 | 199 | 6.0 | 10.0 | 0.00 | 0.00 | 0.00 | 35 | 1011.3 |
| 20260504181321 | 71 | 277 | 3.0 | 6.0 | 0.00 | 0.00 | 0.00 | 35 | 1011.4 |
| 20260504181216 | 72 | 204 | 9.0 | 17.0 | 0.00 | 0.00 | 0.00 | 35 | 1011.3 |
| 20260504181148 | 71 | 280 | 6.0 | 12.0 | 0.00 | 0.00 | 0.00 | 35 | 1011.3 |
| 20260504181024 | 71 | 188 | 4.0 | 13.0 | 0.00 | 0.00 | 0.00 | 35 | 1011.3 |
| 20260504180919 | 71 | 194 | 7.0 | 14.0 | 0.00 | 0.00 | 0.00 | 34 | 1011.2 |
| 20260504180831 | 71 | 207 | 3.0 | 5.0 | 0.00 | 0.00 | 0.00 | 35 | 1011.4 |
| 20260504180727 | 72 | 198 | 6.0 | 9.0 | 0.00 | 0.00 | 0.00 | 34 | 1011.4 |
| 20260504180642 | 72 | 188 | 5.0 | 8.0 | 0.00 | 0.00 | 0.00 | 35 | 1011.5 |
| 20260504180518 | 71 | 213 | 3.0 | 6.0 | 0.00 | 0.00 | 0.00 | 36 | 1011.4 |
| 20260504180429 | 71 | 270 | 1.0 | 4.0 | 0.00 | 0.00 | 0.00 | 34 | 1011.4 |
| 20260504180325 | 71 | 269 | 2.0 | 6.0 | 0.00 | 0.00 | 0.00 | 35 | 1011.3 |
| 20260504180221 | 71 | 190 | 5.0 | 10.0 | 0.00 | 0.00 | 0.00 | 35 | 1011.5 |
| 20260504180116 | 71 | 199 | 6.0 | 8.0 | 0.00 | 0.00 | 0.00 | 35 | 1011.4 |
| 20260504180028 | 71 | 194 | 3.0 | 6.0 | 0.00 | 0.00 | 0.00 | 36 | 1011.7 |
| 20260504175923 | 71 | 196 | 5.0 | 8.0 | 0.00 | 0.00 | 0.00 | 37 | 1011.4 |
| 20260504175819 | 71 | 198 | 8.0 | 12.0 | 0.00 | 0.00 | 0.00 | 34 | 1011.4 |
| 20260504175730 | 71 | 196 | 6.0 | 10.0 | 0.00 | 0.00 | 0.00 | 36 | 1011.6 |
| 20260504175625 | 72 | 203 | 6.0 | 13.0 | 0.00 | 0.00 | 0.00 | 35 | 1011.4 |
| 20260504175521 | 72 | 201 | 5.0 | 9.0 | 0.00 | 0.00 | 0.00 | 34 | 1011.4 |
| 20260504175417 | 72 | 208 | 4.0 | 5.0 | 0.00 | 0.00 | 0.00 | 37 | 1011.6 |
| 20260504175328 | 71 | 202 | 2.0 | 6.0 | 0.00 | 0.00 | 0.00 | 36 | 1011.6 |
| 20260504175224 | 71 | 307 | 4.0 | 7.0 | 0.00 | 0.00 | 0.00 | 35 | 1011.6 |
| 20260504175119 | 71 | 324 | 3.0 | 8.0 | 0.00 | 0.00 | 0.00 | 36 | 1011.7 |
| 20260504175031 | 71 | 208 | 6.0 | 9.0 | 0.00 | 0.00 | 0.00 | 36 | 1011.8 |
| 20260504174926 | 71 | 189 | 6.0 | 10.0 | 0.00 | 0.00 | 0.00 | 35 | 1011.8 |
| 20260504174822 | 71 | 206 | 5.0 | 12.0 | 0.00 | 0.00 | 0.00 | 36 | 1011.8 |
| 20260504174720 | 71 | 214 | 6.0 | 9.0 | 0.00 | 0.00 | 0.00 | 34 | 1011.7 |
| 20260504174649 | 71 | 203 | 6.0 | 8.0 | 0.00 | 0.00 | 0.00 | 35 | 1011.7 |
| 20260504174525 | 72 | 214 | 5.0 | 8.0 | 0.00 | 0.00 | 0.00 | 34 | 1011.7 |
| 20260504174420 | 72 | 280 | 1.0 | 5.0 | 0.00 | 0.00 | 0.00 | 34 | 1011.8 |
| 20260504174316 | 72 | 194 | 3.0 | 6.0 | 0.00 | 0.00 | 0.00 | 37 | 1011.7 |
| 20260504174247 | 72 | 205 | 5.0 | 10.0 | 0.00 | 0.00 | 0.00 | 36 | 1011.8 |
| 20260504174123 | 72 | 250 | 4.0 | 9.0 | 0.00 | 0.00 | 0.00 | 35 | 1011.7 |
| 20260504174019 | 72 | 238 | 3.0 | 5.0 | 0.00 | 0.00 | 0.00 | 37 | 1011.9 |
| 20260504173930 | 72 | 285 | 5.0 | 6.0 | 0.00 | 0.00 | 0.00 | 38 | 1011.8 |
| 20260504173825 | 72 | 205 | 4.0 | 5.0 | 0.00 | 0.00 | 0.00 | 37 | 1011.8 |
| 20260504173721 | 71 | 194 | 4.0 | 4.0 | 0.00 | 0.00 | 0.00 | 38 | 1011.7 |
| 20260504173617 | 71 | 224 | 3.0 | 4.0 | 0.00 | 0.00 | 0.00 | 36 | 1011.7 |
| 20260504173528 | 71 | 220 | 4.0 | 8.0 | 0.00 | 0.00 | 0.00 | 36 | 1011.8 |
| 20260504173424 | 71 | 197 | 4.0 | 9.0 | 0.00 | 0.00 | 0.00 | 36 | 1011.8 |
| 20260504173320 | 71 | 201 | 3.0 | 5.0 | 0.00 | 0.00 | 0.00 | 37 | 1011.6 |
| 20260504173215 | 70 | 220 | 2.0 | 4.0 | 0.00 | 0.00 | 0.00 | 38 | 1011.8 |
| 20260504173147 | 70 | 221 | 2.0 | 6.0 | 0.00 | 0.00 | 0.00 | 37 | 1011.6 |
| 20260504173043 | 70 | 208 | 5.0 | 12.0 | 0.00 | 0.00 | 0.00 | 37 | 1011.8 |
| 20260504172918 | 70 | 205 | 6.0 | 11.0 | 0.00 | 0.00 | 0.00 | 38 | 1011.8 |
| 20260504172830 | 70 | 198 | 6.0 | 9.0 | 0.00 | 0.00 | 0.00 | 36 | 1011.7 |
| 20260504172725 | 70 | 218 | 5.0 | 8.0 | 0.00 | 0.00 | 0.00 | 36 | 1011.8 |
| 20260504172621 | 70 | 193 | 5.0 | 6.0 | 0.00 | 0.00 | 0.00 | 36 | 1011.9 |
| 20260504172537 | 70 | 229 | 6.0 | 14.0 | 0.00 | 0.00 | 0.00 | 35 | 1012.0 |
| 20260504172428 | 70 | 223 | 4.0 | 10.0 | 0.00 | 0.00 | 0.00 | 36 | 1012.0 |
| 20260504172324 | 70 | 215 | 6.0 | 11.0 | 0.00 | 0.00 | 0.00 | 36 | 1011.9 |
| 20260504172219 | 70 | 210 | 6.0 | 9.0 | 0.00 | 0.00 | 0.00 | 35 | 1011.7 |
| 20260504172151 | 71 | 203 | 5.0 | 7.0 | 0.00 | 0.00 | 0.00 | 34 | 1011.9 |
| 20260504172027 | 71 | 237 | 5.0 | 8.0 | 0.00 | 0.00 | 0.00 | 36 | 1012.0 |
| 20260504171922 | 71 | 198 | 5.0 | 8.0 | 0.00 | 0.00 | 0.00 | 37 | 1011.6 |
| 20260504171838 | 71 | 193 | 6.0 | 7.0 | 0.00 | 0.00 | 0.00 | 36 | 1011.8 |
| 20260504171809 | 71 | 229 | 1.0 | 6.0 | 0.00 | 0.00 | 0.00 | 36 | 1011.8 |
| 20260504171625 | 71 | 213 | 5.0 | 10.0 | 0.00 | 0.00 | 0.00 | 36 | 1011.9 |
| 20260504171521 | 71 | 205 | 4.0 | 9.0 | 0.00 | 0.00 | 0.00 | 38 | 1011.9 |
| 20260504171416 | 71 | 207 | 4.0 | 11.0 | 0.00 | 0.00 | 0.00 | 36 | 1012.0 |
| 20260504171328 | 71 | 10 | 3.0 | 6.0 | 0.00 | 0.00 | 0.00 | 36 | 1012.2 |
| 20260504171223 | 70 | 220 | 2.0 | 6.0 | 0.00 | 0.00 | 0.00 | 38 | 1012.1 |
| 20260504171119 | 70 | 24 | 3.0 | 6.0 | 0.00 | 0.00 | 0.00 | 37 | 1012.2 |
| 20260504171030 | 69 | 208 | 2.0 | 4.0 | 0.00 | 0.00 | 0.00 | 38 | 1012.0 |
| 20260504170926 | 69 | 245 | 5.0 | 7.0 | 0.00 | 0.00 | 0.00 | 37 | 1012.0 |
| 20260504170822 | 69 | 203 | 5.0 | 9.0 | 0.00 | 0.00 | 0.00 | 38 | 1012.1 |
| 20260504170717 | 69 | 196 | 6.0 | 8.0 | 0.00 | 0.00 | 0.00 | 37 | 1012.0 |
| 20260504170629 | 70 | 198 | 7.0 | 12.0 | 0.00 | 0.00 | 0.00 | 37 | 1012.0 |
| 20260504170525 | 69 | 196 | 4.0 | 10.0 | 0.00 | 0.00 | 0.00 | 37 | 1012.0 |
| 20260504170420 | 69 | 193 | 4.0 | 8.0 | 0.00 | 0.00 | 0.00 | 37 | 1012.0 |
| 20260504170336 | 69 | 200 | 4.0 | 6.0 | 0.00 | 0.00 | 0.00 | 39 | 1012.1 |
| 20260504170227 | 69 | 201 | 4.0 | 6.0 | 0.00 | 0.00 | 0.00 | 39 | 1012.2 |
| 20260504170143 | 69 | 192 | 7.0 | 13.0 | 0.00 | 0.00 | 0.00 | 36 | 1012.2 |
| 20260504160428 | 67 | 196 | 10.0 | 13.0 | 0.00 | 0.00 | 0.00 | 38 | 1013.1 |
| 20260504160323 | 67 | 205 | 7.0 | 11.0 | 0.00 | 0.00 | 0.00 | 38 | 1013.0 |
| 20260504160219 | 67 | 201 | 8.0 | 11.0 | 0.00 | 0.00 | 0.00 | 37 | 1013.1 |
| 20260504160131 | 67 | 196 | 8.0 | 11.0 | 0.00 | 0.00 | 0.00 | 37 | 1013.0 |
| 20260504151138 | 68 | 198 | 5.0 | 9.0 | 0.00 | 0.00 | 0.00 | 40 | 1013.3 |
| 20260504151030 | 67 | 291 | 2.0 | 4.0 | 0.00 | 0.00 | 0.00 | 40 | 1013.4 |
| 20260504150926 | 67 | 197 | 2.0 | 3.0 | 0.00 | 0.00 | 0.00 | 42 | 1013.5 |
| 20260504150821 | 66 | 226 | 2.0 | 5.0 | 0.00 | 0.00 | 0.00 | 40 | 1013.5 |
| 20260504150717 | 66 | 212 | 4.0 | 7.0 | 0.00 | 0.00 | 0.00 | 42 | 1013.4 |
| 20260504150648 | 66 | 196 | 5.0 | 6.0 | 0.00 | 0.00 | 0.00 | 41 | 1013.4 |
| 20260504150524 | 66 | 205 | 4.0 | 8.0 | 0.00 | 0.00 | 0.00 | 41 | 1013.5 |
| 20260504150420 | 65 | 185 | 6.0 | 13.0 | 0.00 | 0.00 | 0.00 | 40 | 1013.5 |
| 20260504150335 | 65 | 189 | 7.0 | 12.0 | 0.00 | 0.00 | 0.00 | 40 | 1013.5 |
| 20260504150227 | 65 | 191 | 5.0 | 11.0 | 0.00 | 0.00 | 0.00 | 41 | 1013.3 |
| 20260504150123 | 65 | 182 | 5.0 | 9.0 | 0.00 | 0.00 | 0.00 | 42 | 1013.5 |
| 20260504141318 | 63 | 185 | 4.0 | 6.0 | 0.00 | 0.00 | 0.00 | 47 | 1014.0 |
| 20260504141230 | 63 | 195 | 4.0 | 7.0 | 0.00 | 0.00 | 0.00 | 48 | 1013.9 |
| 20260504141126 | 63 | 224 | 5.0 | 9.0 | 0.00 | 0.00 | 0.00 | 47 | 1014.0 |
| 20260504141022 | 63 | 210 | 6.0 | 7.0 | 0.00 | 0.00 | 0.00 | 47 | 1013.7 |
| 20260504140917 | 63 | 200 | 5.0 | 9.0 | 0.00 | 0.00 | 0.00 | 49 | 1013.8 |
| 20260504140849 | 62 | 196 | 6.0 | 9.0 | 0.00 | 0.00 | 0.00 | 50 | 1013.9 |
| 20260504140724 | 63 | 196 | 6.0 | 9.0 | 0.00 | 0.00 | 0.00 | 49 | 1013.9 |
| 20260504140619 | 63 | 177 | 4.0 | 9.0 | 0.00 | 0.00 | 0.00 | 49 | 1013.7 |
| 20260504140515 | 63 | 204 | 6.0 | 9.0 | 0.00 | 0.00 | 0.00 | 50 | 1013.8 |
| 20260504140427 | 63 | 195 | 4.0 | 7.0 | 0.00 | 0.00 | 0.00 | 50 | 1013.8 |
| 20260504140343 | 62 | 227 | 3.0 | 5.0 | 0.00 | 0.00 | 0.00 | 49 | 1014.0 |
| 20260504140218 | 62 | 204 | 3.0 | 7.0 | 0.00 | 0.00 | 0.00 | 51 | 1013.8 |
| 20260504140150 | 62 | 195 | 5.0 | 9.0 | 0.00 | 0.00 | 0.00 | 50 | 1013.8 |
| 20260504130716 | 59 | 192 | 4.0 | 6.0 | 0.00 | 0.00 | 0.00 | 55 | 1014.5 |
| 20260504130628 | 59 | 197 | 4.0 | 6.0 | 0.00 | 0.00 | 0.00 | 55 | 1014.6 |
| 20260504130544 | 59 | 205 | 4.0 | 5.0 | 0.00 | 0.00 | 0.00 | 56 | 1014.5 |
| 20260504130419 | 59 | 190 | 5.0 | 7.0 | 0.00 | 0.00 | 0.00 | 55 | 1014.5 |
| 20260504130331 | 59 | 186 | 4.0 | 7.0 | 0.00 | 0.00 | 0.00 | 56 | 1014.7 |
| 20260504130226 | 59 | 221 | 2.0 | 9.0 | 0.00 | 0.00 | 0.00 | 55 | 1014.6 |
| 20260504130122 | 59 | 208 | 4.0 | 7.0 | 0.00 | 0.00 | 0.00 | 55 | 1014.5 |
| 20260504120219 | 53 | 196 | 3.0 | 3.0 | 0.00 | 0.00 | 0.00 | 65 | 1014.9 |
| 20260504120151 | 53 | 304 | 3.0 | 5.0 | 0.00 | 0.00 | 0.00 | 64 | 1015.0 |
| 20260504110629 | 47 | 210 | 3.0 | 4.0 | 0.00 | 0.00 | 0.00 | 70 | 1015.2 |
| 20260504110525 | 47 | 189 | 1.0 | 4.0 | 0.00 | 0.00 | 0.00 | 70 | 1015.2 |
| 20260504110420 | 47 | 181 | 2.0 | 3.0 | 0.00 | 0.00 | 0.00 | 71 | 1015.2 |
| 20260504110316 | 47 | 188 | 2.0 | 4.0 | 0.00 | 0.00 | 0.00 | 71 | 1015.2 |
| 20260504110227 | 47 | 200 | 1.0 | 3.0 | 0.00 | 0.00 | 0.00 | 71 | 1015.2 |
| 20260504110123 | 46 | 202 | 2.0 | 3.0 | 0.00 | 0.00 | 0.00 | 71 | 1015.1 |
| 20260504100516 | 42 | 37 | 0.0 | 2.0 | 0.00 | 0.00 | 0.00 | 79 | 1014.9 |
| 20260504100428 | 42 | 303 | 0.0 | 2.0 | 0.00 | 0.00 | 0.00 | 79 | 1015.1 |
| 20260504100324 | 41 | 71 | 1.0 | 2.0 | 0.00 | 0.00 | 0.00 | 80 | 1014.9 |
| 20260504100240 | 41 | 0.0 | 1.0 | 0.00 | 0.00 | 0.00 | 79 | 1015.1 | |
| 20260504100115 | 41 | 0.0 | 2.0 | 0.00 | 0.00 | 0.00 | 79 | 1015.0 | |
| 20260504090125 | 43 | 115 | 1.0 | 2.0 | 0.00 | 0.00 | 0.00 | 74 | 1014.8 |
| 20260504081916 | 45 | 176 | 1.0 | 2.0 | 0.00 | 0.00 | 0.00 | 65 | 1014.6 |
| 20260504081828 | 45 | 186 | 2.0 | 3.0 | 0.00 | 0.00 | 0.00 | 66 | 1014.7 |
| 20260504081724 | 45 | 197 | 2.0 | 4.0 | 0.00 | 0.00 | 0.00 | 66 | 1014.6 |
| 20260504081619 | 45 | 194 | 2.0 | 3.0 | 0.00 | 0.00 | 0.00 | 66 | 1014.5 |
| 20260504081515 | 45 | 190 | 1.0 | 3.0 | 0.00 | 0.00 | 0.00 | 66 | 1014.5 |
| 20260504081427 | 45 | 193 | 2.0 | 3.0 | 0.00 | 0.00 | 0.00 | 66 | 1014.5 |
| 20260504081322 | 45 | 199 | 2.0 | 3.0 | 0.00 | 0.00 | 0.00 | 66 | 1014.5 |
| 20260504081218 | 45 | 209 | 2.0 | 2.0 | 0.00 | 0.00 | 0.00 | 65 | 1014.4 |
| 20260504081130 | 45 | 205 | 2.0 | 2.0 | 0.00 | 0.00 | 0.00 | 66 | 1014.4 |
| 20260504081045 | 45 | 218 | 2.0 | 3.0 | 0.00 | 0.00 | 0.00 | 66 | 1014.3 |
| 20260504080921 | 45 | 178 | 1.0 | 3.0 | 0.00 | 0.00 | 0.00 | 66 | 1014.6 |
| 20260504080816 | 45 | 198 | 2.0 | 3.0 | 0.00 | 0.00 | 0.00 | 67 | 1014.6 |
| 20260504080728 | 45 | 188 | 2.0 | 3.0 | 0.00 | 0.00 | 0.00 | 68 | 1014.5 |
| 20260504080623 | 45 | 180 | 2.0 | 3.0 | 0.00 | 0.00 | 0.00 | 68 | 1014.5 |
| 20260504080519 | 45 | 182 | 2.0 | 3.0 | 0.00 | 0.00 | 0.00 | 68 | 1014.3 |
| 20260504080431 | 45 | 178 | 3.0 | 3.0 | 0.00 | 0.00 | 0.00 | 68 | 1014.4 |
| 20260504080326 | 46 | 198 | 2.0 | 4.0 | 0.00 | 0.00 | 0.00 | 68 | 1014.5 |
| 20260504080222 | 46 | 208 | 3.0 | 3.0 | 0.00 | 0.00 | 0.00 | 67 | 1014.5 |
| 20260504080117 | 46 | 185 | 2.0 | 3.0 | 0.00 | 0.00 | 0.00 | 67 | 1014.2 |
| 20260504070320 | 49 | 241 | 3.0 | 4.0 | 0.00 | 0.00 | 0.00 | 55 | 1014.3 |
| 20260504070231 | 49 | 169 | 1.0 | 2.0 | 0.00 | 0.00 | 0.00 | 55 | 1014.3 |
| 20260504070146 | 49 | 200 | 2.0 | 4.0 | 0.00 | 0.00 | 0.00 | 55 | 1014.2 |
| 20260504060224 | 49 | 183 | 2.0 | 5.0 | 0.00 | 0.00 | 0.00 | 55 | 1014.2 |
| 20260504060140 | 49 | 198 | 2.0 | 3.0 | 0.00 | 0.00 | 0.00 | 55 | 1014.1 |
| 20260504050723 | 49 | 206 | 2.0 | 3.0 | 0.00 | 0.00 | 0.00 | 55 | 1013.8 |
| 20260504050619 | 49 | 199 | 1.0 | 2.0 | 0.00 | 0.00 | 0.00 | 54 | 1013.9 |
| 20260504050531 | 49 | 202 | 1.0 | 3.0 | 0.00 | 0.00 | 0.00 | 54 | 1014.0 |
| 20260504050426 | 49 | 181 | 2.0 | 4.0 | 0.00 | 0.00 | 0.00 | 54 | 1014.1 |
| 20260504050322 | 49 | 247 | 1.0 | 2.0 | 0.00 | 0.00 | 0.00 | 54 | 1013.9 |
| 20260504050237 | 49 | 196 | 3.0 | 4.0 | 0.00 | 0.00 | 0.00 | 54 | 1013.9 |
| 20260504050149 | 49 | 202 | 2.0 | 3.0 | 0.00 | 0.00 | 0.00 | 55 | 1013.9 |
| 20260504050024 | 49 | 187 | 2.0 | 3.0 | 0.00 | 0.00 | 0.00 | 54 | 1013.8 |
| 20260504045920 | 49 | 224 | 1.0 | 3.0 | 0.00 | 0.00 | 0.00 | 54 | 1013.7 |
| 20260504045816 | 49 | 175 | 1.0 | 2.0 | 0.00 | 0.00 | 0.00 | 54 | 1013.8 |
| 20260504045727 | 49 | 195 | 2.0 | 4.0 | 0.00 | 0.00 | 0.00 | 54 | 1013.8 |
| 20260504045623 | 49 | 192 | 2.0 | 3.0 | 0.00 | 0.00 | 0.00 | 55 | 1013.7 |
| 20260504045518 | 49 | 203 | 2.0 | 3.0 | 0.00 | 0.00 | 0.00 | 54 | 1014.0 |
| 20260504045450 | 49 | 207 | 2.0 | 3.0 | 0.00 | 0.00 | 0.00 | 55 | 1013.9 |
| 20260504045326 | 49 | 175 | 2.0 | 2.0 | 0.00 | 0.00 | 0.00 | 55 | 1013.9 |
| 20260504045301 | 48 | 201 | 2.0 | 2.0 | 0.00 | 0.00 | 0.00 | 55 | 1013.9 |
| 20260504045117 | 48 | 190 | 2.0 | 3.0 | 0.00 | 0.00 | 0.00 | 55 | 1014.0 |
| 20260504045028 | 48 | 190 | 1.0 | 2.0 | 0.00 | 0.00 | 0.00 | 55 | 1013.9 |
| 20260504044924 | 48 | 184 | 2.0 | 3.0 | 0.00 | 0.00 | 0.00 | 56 | 1013.9 |
| 20260504044819 | 48 | 194 | 2.0 | 3.0 | 0.00 | 0.00 | 0.00 | 55 | 1013.8 |
| 20260504044715 | 48 | 203 | 2.0 | 3.0 | 0.00 | 0.00 | 0.00 | 56 | 1013.7 |
| 20260504044627 | 48 | 132 | 1.0 | 2.0 | 0.00 | 0.00 | 0.00 | 56 | 1013.9 |
| 20260504044522 | 48 | 191 | 1.0 | 2.0 | 0.00 | 0.00 | 0.00 | 56 | 1013.9 |
| 20260504044438 | 48 | 193 | 2.0 | 3.0 | 0.00 | 0.00 | 0.00 | 56 | 1013.9 |
| 20260504044329 | 48 | 210 | 1.0 | 1.0 | 0.00 | 0.00 | 0.00 | 56 | 1013.7 |
| 20260504044225 | 48 | 187 | 1.0 | 2.0 | 0.00 | 0.00 | 0.00 | 57 | 1013.9 |
| 20260504044120 | 48 | 154 | 1.0 | 2.0 | 0.00 | 0.00 | 0.00 | 57 | 1013.8 |
| 20260504044016 | 48 | 195 | 1.0 | 2.0 | 0.00 | 0.00 | 0.00 | 56 | 1013.9 |
| 20260504043928 | 48 | 0.0 | 1.0 | 0.00 | 0.00 | 0.00 | 56 | 1013.7 | |
| 20260504043824 | 48 | 0.0 | 1.0 | 0.00 | 0.00 | 0.00 | 56 | 1013.9 | |
| 20260504043719 | 48 | 183 | 0.0 | 2.0 | 0.00 | 0.00 | 0.00 | 56 | 1013.9 |
| 20260504043631 | 48 | 201 | 1.0 | 1.0 | 0.00 | 0.00 | 0.00 | 56 | 1013.9 |
| 20260504043526 | 48 | 187 | 1.0 | 3.0 | 0.00 | 0.00 | 0.00 | 56 | 1013.8 |
| 20260504043422 | 48 | 202 | 1.0 | 2.0 | 0.00 | 0.00 | 0.00 | 56 | 1013.9 |
| 20260504043318 | 48 | 175 | 0.0 | 1.0 | 0.00 | 0.00 | 0.00 | 56 | 1013.9 |
| 20260504043229 | 48 | 183 | 1.0 | 1.0 | 0.00 | 0.00 | 0.00 | 56 | 1014.0 |
| 20260504043125 | 48 | 195 | 1.0 | 2.0 | 0.00 | 0.00 | 0.00 | 56 | 1013.9 |
| 20260504043021 | 48 | 156 | 0.0 | 1.0 | 0.00 | 0.00 | 0.00 | 56 | 1014.0 |
| 20260504042916 | 48 | 183 | 0.0 | 2.0 | 0.00 | 0.00 | 0.00 | 56 | 1013.8 |
| 20260504042828 | 48 | 173 | 1.0 | 2.0 | 0.00 | 0.00 | 0.00 | 56 | 1013.7 |
| 20260504042724 | 48 | 185 | 1.0 | 2.0 | 0.00 | 0.00 | 0.00 | 56 | 1013.7 |
| 20260504042619 | 48 | 181 | 2.0 | 2.0 | 0.00 | 0.00 | 0.00 | 56 | 1013.8 |
| 20260504042531 | 48 | 190 | 1.0 | 3.0 | 0.00 | 0.00 | 0.00 | 56 | 1013.8 |
| 20260504042446 | 48 | 192 | 2.0 | 3.0 | 0.00 | 0.00 | 0.00 | 56 | 1013.7 |
| 20260504042322 | 48 | 184 | 2.0 | 3.0 | 0.00 | 0.00 | 0.00 | 56 | 1013.7 |
| 20260504042217 | 48 | 185 | 2.0 | 2.0 | 0.00 | 0.00 | 0.00 | 56 | 1013.8 |
| 20260504042129 | 48 | 182 | 2.0 | 2.0 | 0.00 | 0.00 | 0.00 | 56 | 1013.8 |
| 20260504042025 | 48 | 184 | 1.0 | 2.0 | 0.00 | 0.00 | 0.00 | 56 | 1013.8 |
| 20260504041920 | 48 | 179 | 1.0 | 2.0 | 0.00 | 0.00 | 0.00 | 56 | 1013.7 |
| 20260504041836 | 48 | 181 | 2.0 | 2.0 | 0.00 | 0.00 | 0.00 | 56 | 1013.5 |
| 20260504041728 | 48 | 179 | 2.0 | 2.0 | 0.00 | 0.00 | 0.00 | 56 | 1013.4 |
| 20260504041643 | 48 | 184 | 1.0 | 2.0 | 0.00 | 0.00 | 0.00 | 56 | 1013.8 |
| 20260504041539 | 48 | 167 | 1.0 | 2.0 | 0.00 | 0.00 | 0.00 | 56 | 1013.6 |
| 20260504041451 | 49 | 174 | 2.0 | 2.0 | 0.00 | 0.00 | 0.00 | 56 | 1013.8 |
| 20260504041346 | 49 | 196 | 2.0 | 2.0 | 0.00 | 0.00 | 0.00 | 56 | 1013.7 |
| 20260504041222 | 49 | 186 | 1.0 | 2.0 | 0.00 | 0.00 | 0.00 | 55 | 1013.5 |
| 20260504041118 | 49 | 176 | 2.0 | 3.0 | 0.00 | 0.00 | 0.00 | 56 | 1013.6 |
| 20260504041029 | 49 | 183 | 2.0 | 3.0 | 0.00 | 0.00 | 0.00 | 55 | 1013.6 |
| 20260504040925 | 49 | 181 | 1.0 | 2.0 | 0.00 | 0.00 | 0.00 | 56 | 1013.6 |
| 20260504040840 | 49 | 163 | 2.0 | 3.0 | 0.00 | 0.00 | 0.00 | 55 | 1013.5 |
| 20260504040716 | 49 | 186 | 2.0 | 2.0 | 0.00 | 0.00 | 0.00 | 55 | 1013.5 |
| 20260504040648 | 49 | 179 | 2.0 | 2.0 | 0.00 | 0.00 | 0.00 | 54 | 1013.7 |
| 20260504040523 | 49 | 193 | 1.0 | 2.0 | 0.00 | 0.00 | 0.00 | 55 | 1013.7 |
| 20260504040419 | 49 | 191 | 2.0 | 3.0 | 0.00 | 0.00 | 0.00 | 54 | 1013.6 |
| 20260504040330 | 49 | 200 | 2.0 | 3.0 | 0.00 | 0.00 | 0.00 | 54 | 1013.6 |
| 20260504040226 | 49 | 182 | 1.0 | 2.0 | 0.00 | 0.00 | 0.00 | 55 | 1013.6 |
| 20260504040122 | 49 | 184 | 2.0 | 2.0 | 0.00 | 0.00 | 0.00 | 55 | 1013.5 |
| 20260504040018 | 49 | 183 | 1.0 | 2.0 | 0.00 | 0.00 | 0.00 | 55 | 1013.4 |
| 20260504035949 | 49 | 181 | 2.0 | 2.0 | 0.00 | 0.00 | 0.00 | 55 | 1013.6 |
| 20260504035825 | 49 | 196 | 2.0 | 3.0 | 0.00 | 0.00 | 0.00 | 55 | 1013.7 |
| 20260504035720 | 49 | 189 | 2.0 | 2.0 | 0.00 | 0.00 | 0.00 | 55 | 1013.6 |
| 20260504035616 | 49 | 190 | 1.0 | 2.0 | 0.00 | 0.00 | 0.00 | 55 | 1013.6 |
| 20260504035528 | 49 | 177 | 1.0 | 2.0 | 0.00 | 0.00 | 0.00 | 55 | 1013.5 |
| 20260504035443 | 49 | 191 | 1.0 | 3.0 | 0.00 | 0.00 | 0.00 | 55 | 1013.6 |
| 20260504035319 | 49 | 174 | 2.0 | 3.0 | 0.00 | 0.00 | 0.00 | 55 | 1013.6 |
| 20260504035230 | 48 | 185 | 1.0 | 2.0 | 0.00 | 0.00 | 0.00 | 55 | 1013.6 |
| 20260504035146 | 48 | 182 | 1.0 | 2.0 | 0.00 | 0.00 | 0.00 | 55 | 1013.5 |
| 20260504035021 | 48 | 174 | 1.0 | 3.0 | 0.00 | 0.00 | 0.00 | 55 | 1013.7 |
| 20260504034917 | 48 | 191 | 2.0 | 2.0 | 0.00 | 0.00 | 0.00 | 56 | 1013.7 |
| 20260504034829 | 48 | 186 | 1.0 | 2.0 | 0.00 | 0.00 | 0.00 | 56 | 1013.6 |
| 20260504034724 | 48 | 171 | 1.0 | 2.0 | 0.00 | 0.00 | 0.00 | 56 | 1013.6 |
| 20260504034640 | 48 | 162 | 1.0 | 2.0 | 0.00 | 0.00 | 0.00 | 57 | 1013.5 |
| 20260504034516 | 48 | 179 | 1.0 | 2.0 | 0.00 | 0.00 | 0.00 | 56 | 1013.6 |
| 20260504034427 | 48 | 185 | 1.0 | 2.0 | 0.00 | 0.00 | 0.00 | 55 | 1013.6 |
| 20260504034322 | 48 | 190 | 2.0 | 3.0 | 0.00 | 0.00 | 0.00 | 56 | 1013.5 |
| 20260504034218 | 48 | 191 | 1.0 | 2.0 | 0.00 | 0.00 | 0.00 | 59 | 1013.6 |
| 20260504034130 | 48 | 172 | 1.0 | 3.0 | 0.00 | 0.00 | 0.00 | 58 | 1013.6 |
| 20260504034026 | 48 | 185 | 2.0 | 3.0 | 0.00 | 0.00 | 0.00 | 57 | 1013.5 |
| 20260504033921 | 48 | 181 | 1.0 | 2.0 | 0.00 | 0.00 | 0.00 | 58 | 1013.6 |
| 20260504033817 | 48 | 184 | 1.0 | 2.0 | 0.00 | 0.00 | 0.00 | 60 | 1013.5 |
| 20260504033729 | 48 | 161 | 1.0 | 2.0 | 0.00 | 0.00 | 0.00 | 62 | 1013.4 |
| 20260504033644 | 48 | 140 | 1.0 | 2.0 | 0.00 | 0.00 | 0.00 | 62 | 1013.4 |
| 20260504033520 | 48 | 112 | 1.0 | 2.0 | 0.00 | 0.00 | 0.00 | 59 | 1013.4 |
| 20260504033435 | 48 | 199 | 1.0 | 2.0 | 0.00 | 0.00 | 0.00 | 57 | 1013.4 |
| 20260504033327 | 48 | 166 | 0.0 | 2.0 | 0.00 | 0.00 | 0.00 | 57 | 1013.6 |
| 20260504033222 | 48 | 183 | 1.0 | 2.0 | 0.00 | 0.00 | 0.00 | 56 | 1013.5 |
| 20260504033118 | 48 | 192 | 1.0 | 2.0 | 0.00 | 0.00 | 0.00 | 56 | 1013.5 |
| 20260504033030 | 48 | 185 | 1.0 | 2.0 | 0.00 | 0.00 | 0.00 | 57 | 1013.4 |
| 20260504032925 | 49 | 166 | 1.0 | 2.0 | 0.00 | 0.00 | 0.00 | 59 | 1013.4 |
| 20260504032821 | 49 | 202 | 1.0 | 2.0 | 0.00 | 0.00 | 0.00 | 57 | 1013.4 |
| 20260504032716 | 49 | 172 | 2.0 | 2.0 | 0.00 | 0.00 | 0.00 | 56 | 1013.4 |
| 20260504032628 | 49 | 185 | 2.0 | 2.0 | 0.00 | 0.00 | 0.00 | 55 | 1013.5 |
| 20260504032544 | 49 | 187 | 2.0 | 2.0 | 0.00 | 0.00 | 0.00 | 55 | 1013.5 |
| 20260504032419 | 48 | 191 | 2.0 | 2.0 | 0.00 | 0.00 | 0.00 | 56 | 1013.4 |
| 20260504032411 | 48 | 179 | 1.0 | 2.0 | 0.00 | 0.00 | 0.00 | 55 | 1013.4 |